GFSSE_925_spd_042.txt.gz
Wind_Speed
25 29 25 29 33 33 33 32 30 28 25 24 24 24 24 25 26 28 28 28 27 27 25 25 25 24 25 27 28 29 29 29 31 29 30 28 26 24 23 24 24 25 25
17 25 30 30 31 31 32 31 30 27 26 24 24 25 25 26 28 28 28 27 25 26 25 25 25 24 27 27 27 25 24 26 30 31 28 27 26 25 26 24 23 23 24
4 16 26 28 33 32 31 30 30 27 26 25 25 26 27 29 29 29 28 26 27 25 24 24 25 26 27 25 23 21 17 15 15 20 27 26 24 23 23 24 24 24 24
24 20 25 29 31 31 30 30 28 27 26 26 27 28 29 29 28 27 27 26 26 25 23 23 23 25 24 23 22 20 17 21 25 26 26 23 20 22 22 21 22 23 23
23 22 23 28 29 30 30 29 27 26 27 28 29 30 30 29 27 26 27 26 26 24 23 22 24 23 22 20 16 15 13 16 23 18 21 22 20 20 20 21 21 22 23
21 25 26 28 31 28 27 27 27 26 29 31 31 30 29 29 29 29 27 26 26 24 23 22 23 21 20 18 13 15 18 14 28 24 21 19 20 18 19 19 20 20 21
28 23 26 24 29 31 30 27 26 28 29 31 31 31 30 30 30 30 29 28 26 24 24 22 21 20 19 18 15 17 20 23 21 22 19 18 18 18 18 18 18 18 18
25 22 25 25 28 33 32 29 28 29 30 30 30 30 30 29 29 28 27 26 25 25 24 22 19 18 18 17 16 15 17 18 22 20 18 18 16 16 17 17 17 18 19
19 23 25 24 29 30 29 28 31 32 30 29 28 29 29 27 27 26 25 24 24 25 22 19 17 16 16 17 20 18 16 13 14 22 21 16 14 14 15 15 15 16 17
22 33 24 14 23 24 26 30 30 31 30 27 27 27 26 25 25 25 25 24 24 22 20 17 15 14 13 15 15 11 13 14 16 14 14 15 12 12 12 13 14 14 15
27 20 29 27 26 24 25 28 30 30 28 27 28 25 23 24 24 20 22 22 20 20 17 14 12 10 13 17 14 12 14 11 15 13 14 12 10 10 10 11 12 12 12
21 28 34 32 27 31 31 31 31 33 29 27 28 24 20 21 17 20 19 18 17 15 14 12 10 9 8 8 10 11 9 10 11 9 11 8 7 9 9 9 10 10 11
18 31 30 31 30 30 31 32 30 28 28 30 24 15 22 19 15 18 16 15 14 12 13 11 6 5 6 9 7 6 5 12 9 7 7 6 7 7 8 8 10 9 10
22 19 27 32 33 29 27 29 31 27 27 26 20 20 20 18 14 15 14 13 13 10 10 7 10 7 8 8 7 7 8 6 5 2 5 6 4 7 8 9 10 9 9
22 22 25 29 34 32 32 31 27 25 23 20 21 17 17 15 14 13 13 11 12 14 9 9 5 7 7 6 6 5 6 5 6 3 0 2 2 7 8 9 10 9 8
24 25 28 29 31 31 29 31 26 22 19 20 17 11 12 14 11 12 15 13 14 10 10 9 10 7 7 3 4 4 4 4 1 1 2 2 3 6 8 10 11 11 9
23 28 28 28 30 33 29 30 21 22 19 18 18 15 15 12 13 11 13 11 11 12 11 11 12 8 6 4 3 3 1 3 1 1 3 1 2 5 9 10 12 10 9
23 22 25 29 33 34 31 30 26 22 19 23 24 15 15 13 14 14 15 14 13 13 10 8 10 9 7 5 5 3 3 1 3 1 1 1 6 5 7 12 13 13 11
23 25 21 27 39 41 33 32 36 27 27 24 24 20 18 20 12 16 13 14 15 12 12 13 11 9 10 6 7 9 7 6 5 5 4 3 4 4 5 7 7 10 10
26 26 28 32 39 40 41 31 28 24 24 23 22 18 21 20 17 16 16 17 15 14 14 14 12 9 6 9 8 7 11 10 10 9 7 7 5 6 1 5 4 7 12
29 29 30 33 32 30 29 20 16 17 17 21 13 16 15 17 17 18 17 19 19 17 17 16 14 13 9 8 5 13 19 18 13 11 11 10 9 9 7 7 5 6 11
29 31 30 30 28 28 23 24 20 18 18 21 22 18 18 19 21 21 19 18 17 16 17 19 15 14 13 12 4 6 3 7 14 15 14 14 13 10 9 11 11 11 5
35 34 33 32 31 30 26 26 23 23 24 25 23 23 22 20 20 20 20 17 17 18 21 18 18 15 14 13 10 4 2 2 2 18 18 15 12 16 13 11 8 12 13
34 38 36 33 31 30 29 24 26 21 22 22 22 20 21 22 22 19 21 21 18 22 17 18 19 17 15 6 9 9 9 4 2 3 14 19 16 14 15 17 14 11 10
34 37 37 37 35 35 33 29 26 27 25 22 23 20 17 17 23 23 18 23 21 23 18 22 21 19 13 13 7 5 10 10 10 8 4 7 18 20 21 20 18 16 13
39 37 36 34 33 33 37 31 23 24 20 25 20 21 19 21 23 22 21 21 24 22 22 19 18 19 15 13 12 9 8 3 6 6 5 9 10 11 10 15 15 13 12

GFSSE_925_spd_045.txt.gz
Wind_Speed
15 20 27 26 29 34 34 33 32 29 28 29 30 31 32 32 35 36 32 31 31 29 27 27 27 28 29 29 30 34 34 31 28 30 30 28 27 27 26 26 30 29 28
25 19 24 27 27 32 33 33 31 30 30 30 31 32 33 34 36 35 32 31 31 29 27 27 27 27 29 31 31 33 33 33 31 29 28 27 27 26 26 26 27 26 26
25 7 21 27 27 29 30 31 31 29 28 30 31 33 35 36 36 34 32 31 31 28 27 27 29 28 28 26 23 20 16 9 19 27 27 27 26 24 25 26 27 26 25
23 26 25 23 27 29 31 31 29 28 28 31 33 34 35 35 35 35 31 31 29 28 26 27 28 27 25 22 21 22 29 28 26 25 25 24 26 23 23 25 24 24 23
13 28 39 36 29 30 29 30 28 28 30 32 34 34 34 33 34 34 31 31 29 26 25 26 27 25 21 20 19 18 23 23 18 21 24 24 24 21 21 21 22 22 23
12 19 28 35 36 34 31 31 29 29 32 32 33 34 33 32 33 33 30 29 28 26 25 26 24 20 19 19 20 23 22 20 24 25 25 23 23 20 20 20 21 22 23
20 15 17 23 33 32 31 30 29 32 33 33 33 33 32 31 31 31 30 27 27 27 26 24 22 20 17 17 22 28 24 22 23 24 24 23 21 19 19 19 20 19 20
16 11 18 23 37 32 27 29 30 34 33 33 33 33 33 33 32 31 29 27 27 26 25 23 21 20 17 18 22 27 21 16 21 22 22 21 19 18 18 18 19 19 20
18 19 20 22 24 25 25 30 33 34 34 33 33 33 32 32 32 30 27 27 26 25 23 21 20 18 19 19 19 19 21 18 21 21 20 20 17 16 15 17 18 19 19
23 23 20 18 16 34 31 31 34 33 33 32 31 31 30 29 29 28 27 26 24 22 20 19 18 18 20 17 15 18 20 23 19 18 17 18 16 14 14 15 17 17 17
21 27 16 18 17 31 27 27 30 29 31 30 28 27 28 28 28 27 26 25 22 19 18 16 15 19 20 16 15 13 16 15 13 14 13 13 14 13 13 13 14 14 15
18 17 18 29 29 31 27 27 32 30 31 31 28 26 28 25 25 26 24 22 19 16 15 13 12 12 9 11 10 11 13 12 12 11 10 10 12 11 11 12 13 13 14
18 25 29 30 31 31 36 30 27 32 32 31 28 26 23 22 24 23 22 19 16 13 12 11 10 10 12 9 7 9 13 10 8 9 9 8 11 9 10 11 11 11 12
19 24 34 33 33 34 34 33 26 30 35 31 23 29 24 23 24 22 19 18 16 14 13 8 11 10 9 7 7 9 8 9 7 7 8 7 9 9 9 9 10 10 11
22 27 33 36 39 35 35 36 32 33 34 23 29 28 22 23 22 19 18 16 14 13 12 10 11 9 7 6 7 8 9 8 8 4 6 5 4 6 9 9 11 9 10
22 22 30 33 39 39 39 38 34 33 31 26 25 24 21 19 18 17 14 12 14 13 12 12 7 7 8 4 6 7 6 6 2 5 4 2 2 6 10 11 11 9 9
20 24 26 32 38 39 37 36 36 34 27 15 21 21 16 13 10 12 10 15 14 16 14 12 10 10 10 5 4 5 6 4 2 2 1 3 4 3 8 11 11 11 11
27 26 25 30 36 33 33 36 38 34 25 18 25 23 16 10 12 11 14 15 17 15 16 18 15 12 10 10 8 6 6 2 5 2 5 4 4 3 6 10 13 11 11
26 28 28 34 36 33 33 37 34 32 34 31 27 26 14 14 12 15 16 17 17 19 16 14 14 14 14 11 9 10 8 7 8 7 8 6 5 7 6 7 10 11 14
26 24 31 35 35 35 32 33 34 36 34 36 26 17 18 19 21 17 18 17 20 20 16 16 17 13 16 14 11 14 11 14 14 11 11 9 7 9 8 8 10 8 9
27 27 28 28 36 38 33 32 29 34 37 32 25 29 26 24 20 22 23 18 22 21 21 20 18 20 12 12 13 6 13 17 17 15 13 13 13 12 9 9 11 10 11
30 28 30 33 37 37 34 36 31 35 34 36 34 27 24 25 23 26 24 20 27 22 21 23 23 19 18 13 7 4 1 5 15 16 16 16 15 17 14 13 13 14 12
31 31 36 37 40 42 37 29 27 26 25 29 32 31 28 26 27 29 24 22 25 22 23 25 26 22 17 16 19 7 1 3 3 12 19 19 19 18 18 19 16 19 17
35 37 38 40 41 38 34 29 30 24 24 29 34 31 31 34 31 25 23 26 22 22 24 25 25 23 16 18 16 16 10 5 3 1 11 19 18 22 24 24 19 17 19
35 37 37 36 36 36 36 34 35 32 33 31 31 32 30 28 26 27 26 25 24 25 26 23 26 24 24 18 16 9 11 11 10 4 3 8 19 25 24 25 22 24 21
39 38 38 38 37 36 40 41 37 30 36 33 31 32 25 27 29 30 27 24 27 25 25 23 22 20 26 19 14 12 13 8 9 8 4 10 7 9 22 27 28 26 26

GFSSE_925_spd_048.txt.gz
Wind_Speed
20 28 25 25 21 25 31 31 23 30 34 37 40 41 39 40 38 38 36 35 33 32 31 30 32 32 32 32 32 31 29 30 33 31 29 27 25 25 25 27 28 29 27
23 26 26 24 24 23 30 32 27 31 35 38 40 41 39 39 37 37 36 34 32 31 30 30 30 30 30 29 33 34 32 31 31 29 27 26 26 25 25 26 27 27 27
25 27 26 27 16 25 30 29 29 32 36 39 41 42 40 39 37 36 36 35 33 30 30 29 28 26 25 25 21 14 22 27 28 29 29 27 26 24 24 25 25 24 24
30 31 33 32 21 22 28 28 29 32 36 38 41 41 41 39 38 37 36 34 33 30 27 26 25 25 25 25 26 26 25 24 24 26 28 27 25 23 22 23 25 25 25
25 28 38 29 35 27 34 32 31 33 36 39 42 42 41 39 38 37 36 35 32 29 26 25 25 24 22 19 22 25 23 24 25 27 26 26 24 21 21 22 24 24 24
26 31 40 34 40 40 35 35 33 34 36 39 41 40 40 39 38 37 35 33 31 28 26 26 24 23 22 22 25 24 24 25 25 26 26 23 22 20 20 21 23 23 23
19 31 24 32 42 34 36 36 37 37 36 38 40 40 39 39 36 35 33 31 30 29 26 24 23 24 25 26 27 23 21 25 25 25 24 23 21 20 20 20 21 21 21
21 18 24 30 36 32 34 36 37 38 35 37 38 39 39 37 35 33 32 31 29 27 24 22 21 23 30 24 22 20 21 22 22 22 22 22 19 19 20 20 20 20 20
11 12 19 24 30 22 32 24 33 36 34 35 35 36 38 36 34 32 30 30 28 25 22 20 20 22 24 25 17 15 17 18 19 19 20 20 18 18 18 19 19 19 18
13 21 24 23 26 27 31 33 23 33 33 33 35 36 37 35 33 30 30 28 26 23 22 18 21 20 20 23 21 21 18 16 16 17 18 19 17 17 16 16 17 16 17
14 26 26 36 29 33 32 26 28 29 32 33 35 35 34 33 31 30 28 26 24 22 19 19 18 17 17 19 19 16 15 14 14 16 16 16 15 15 15 15 14 14 15
21 26 34 35 37 38 38 31 29 31 33 33 34 33 33 32 31 30 27 25 22 20 17 18 15 12 12 12 13 15 13 14 13 13 13 15 13 12 12 13 12 13 13
20 20 30 29 32 39 40 36 28 34 35 35 33 34 32 31 31 29 27 24 22 19 16 15 10 8 11 9 11 14 12 11 12 11 10 10 12 9 10 10 11 12 12
16 21 27 36 39 37 40 40 36 37 37 36 35 32 32 32 30 29 26 23 21 18 15 12 13 11 9 10 10 10 11 10 9 11 8 7 11 9 8 9 10 11 11
14 21 28 34 37 37 33 38 39 41 39 37 35 32 32 31 30 27 23 21 19 17 13 11 12 10 9 7 9 9 10 10 9 7 7 9 10 10 9 8 9 9 10
10 18 33 34 35 37 38 36 38 40 37 37 35 31 31 31 28 24 22 19 17 17 15 13 12 12 10 5 8 9 8 8 4 6 7 8 8 8 10 9 10 10 11
12 12 30 37 38 41 38 35 38 32 33 37 34 28 30 27 25 22 19 17 18 17 13 16 14 13 11 8 7 10 9 5 3 4 5 5 5 5 9 12 12 11 12
14 16 14 31 38 35 37 37 39 34 36 34 30 27 26 22 19 17 13 16 18 16 18 18 16 14 14 11 10 10 8 6 5 4 6 4 5 5 8 14 15 14 13
17 19 18 25 33 37 42 37 33 33 35 29 30 27 20 15 15 15 14 16 17 22 22 21 18 18 17 15 13 10 10 11 9 5 6 8 8 9 9 11 13 15 14
17 20 25 24 28 33 35 32 27 31 36 30 28 28 24 11 11 14 16 16 18 21 21 22 23 19 16 16 15 13 14 12 10 8 9 11 11 13 13 12 13 13 13
19 19 20 31 32 34 34 34 30 28 34 33 30 30 25 18 16 18 18 18 19 25 25 24 20 19 17 18 14 9 14 16 15 13 13 14 13 15 16 14 14 15 15
24 26 25 25 36 33 32 31 33 34 37 40 36 37 35 27 20 23 22 22 23 26 27 25 25 23 17 19 11 4 1 5 14 17 17 19 19 17 18 17 17 19 18
24 29 31 30 35 35 38 36 29 30 29 32 35 38 39 29 29 29 27 25 26 28 31 29 29 29 26 22 20 9 2 4 2 11 23 23 22 22 21 21 21 19 20
29 30 31 35 35 37 33 32 30 27 27 32 32 35 37 31 30 26 28 27 27 32 33 30 29 30 27 24 17 20 7 6 3 2 11 18 23 24 25 25 25 23 22
31 31 34 34 36 34 37 33 31 27 27 27 31 34 37 38 35 32 30 29 31 34 34 29 28 31 31 27 20 11 17 9 9 4 3 7 18 23 25 27 27 27 25
34 34 34 35 35 38 38 36 33 32 30 33 36 39 40 40 40 35 34 34 34 34 28 28 28 31 31 26 21 19 17 8 13 9 4 7 9 12 17 23 28 28 28

GFSSE_925_spd_054.txt.gz
Wind_Speed
22 33 34 32 28 31 30 35 38 43 37 35 35 35 35 33 32 34 34 35 35 33 30 30 29 29 29 28 28 27 27 31 30 27 26 27 27 27 28 30 31 30 30
28 33 27 32 33 32 31 30 31 39 43 36 34 32 32 33 33 34 36 37 36 34 31 31 30 30 30 29 29 30 31 31 30 29 27 26 27 27 27 28 28 27 27
28 28 27 29 29 27 31 34 39 42 41 38 33 32 32 32 32 35 37 37 35 34 32 31 31 30 29 29 31 31 31 32 30 28 26 27 26 24 26 27 24 23 23
29 27 27 30 29 31 33 38 35 34 39 39 35 31 31 32 33 34 36 37 35 32 29 28 25 25 28 29 30 30 31 31 30 27 26 27 26 25 25 27 26 27 26
28 30 30 31 29 29 31 32 36 36 37 35 36 32 31 31 32 36 38 37 34 29 26 24 23 26 28 29 29 30 30 27 28 29 28 27 27 24 25 23 25 25 26
25 28 30 29 30 32 34 34 36 36 35 38 36 32 30 30 32 34 36 35 32 29 27 25 29 31 29 29 29 28 28 27 29 30 29 26 26 23 23 24 25 25 25
22 26 28 32 33 32 32 32 36 38 37 39 38 32 28 29 32 33 35 32 30 27 26 27 31 30 30 30 29 28 27 27 29 30 28 26 26 24 24 24 24 24 24
20 23 32 30 29 28 29 28 32 34 38 37 42 32 29 29 31 34 35 34 30 27 27 31 32 30 29 28 27 27 27 26 27 28 26 26 25 24 23 23 23 23 23
20 22 24 31 26 22 24 35 35 31 35 37 39 35 34 31 33 35 35 34 31 28 29 32 32 30 27 26 25 26 25 24 25 26 25 25 23 23 22 22 22 22 22
10 20 24 20 19 16 16 29 36 34 32 37 39 36 35 32 32 34 35 35 34 31 32 32 29 27 26 24 23 23 23 22 23 24 25 24 21 21 21 21 22 21 21
12 15 23 12 17 16 16 27 30 30 31 36 38 37 34 32 33 36 35 35 32 31 29 28 27 25 24 23 20 20 21 21 22 23 23 21 20 19 19 20 20 20 19
17 35 24 19 24 26 38 41 32 30 33 35 38 35 35 34 34 35 34 34 32 31 28 27 28 27 25 23 20 18 18 20 20 21 21 19 18 17 17 17 17 17 16
19 26 29 29 35 41 34 43 37 30 29 30 38 35 36 35 33 33 34 35 32 29 28 25 25 24 23 21 18 17 17 18 19 19 19 17 15 15 15 15 15 14 14
18 24 27 35 38 37 36 37 40 34 29 33 35 36 37 35 34 33 32 32 33 27 24 24 23 21 20 18 16 16 15 16 17 17 17 15 14 12 13 13 13 13 13
14 22 31 36 32 42 35 37 40 36 30 33 39 38 38 36 34 32 31 29 28 25 22 22 21 19 18 18 15 13 12 13 13 14 14 13 12 11 11 11 12 12 13
15 23 29 35 32 34 33 39 39 40 34 29 32 34 39 37 35 32 29 27 25 21 20 20 18 18 17 14 13 12 12 11 11 10 11 11 11 10 10 11 12 11 11
16 19 27 30 35 35 33 37 38 37 37 40 33 32 37 38 34 32 29 27 24 21 20 19 18 16 15 14 13 12 12 11 9 8 9 8 10 13 12 12 11 12 11
11 19 21 28 35 33 33 33 32 33 33 37 38 37 39 38 34 30 27 25 24 20 19 17 15 15 14 13 13 14 13 10 8 7 7 8 9 12 15 15 12 11 12
10 13 23 22 32 33 32 33 34 34 32 31 37 40 39 37 33 28 25 24 23 21 19 18 16 14 15 14 14 13 11 10 9 7 7 8 10 11 13 13 14 14 13
11 11 13 16 30 35 34 31 29 36 34 33 36 39 39 37 30 25 23 23 21 22 20 19 17 17 17 16 14 12 12 13 13 12 11 11 12 12 11 11 13 15 15
10 10 10 17 25 32 34 32 30 34 31 29 33 37 32 30 23 24 23 20 23 24 20 20 20 20 17 18 13 10 12 14 16 17 16 15 15 14 13 12 13 14 15
15 13 12 19 28 31 35 24 26 29 36 31 23 31 29 27 23 24 22 18 23 25 19 22 23 22 20 19 9 4 1 7 21 23 22 20 19 18 16 16 15 14 14
15 16 17 20 23 27 29 25 21 24 32 31 21 27 28 28 21 17 20 18 20 17 18 21 24 25 23 22 22 9 2 4 2 11 23 24 21 22 20 20 20 18 18
21 18 19 21 24 29 31 32 30 22 30 28 27 24 29 36 30 21 17 15 16 16 18 19 22 27 26 25 23 24 15 6 4 2 8 14 22 24 22 21 24 23 24
27 24 22 23 25 26 33 32 35 30 31 30 34 30 32 32 37 30 24 20 20 21 21 21 26 29 31 29 25 15 22 12 11 3 3 6 11 19 22 22 24 26 27
27 28 28 26 31 31 33 34 37 35 33 35 33 33 33 35 38 39 32 29 27 23 24 25 28 30 32 34 31 29 22 11 14 7 3 9 9 9 12 16 21 23 23

GFSSE_925_spd_057.txt.gz
Wind_Speed
19 26 33 32 33 35 29 29 37 36 39 40 39 39 34 33 34 33 31 31 29 27 26 26 25 24 24 24 25 26 31 31 31 32 31 29 28 29 29 30 29 29 32
21 30 32 27 28 30 28 38 38 38 39 41 42 39 33 32 33 34 32 32 31 29 27 27 26 25 24 24 27 30 31 31 31 30 30 29 28 27 27 29 28 29 29
23 29 27 27 28 33 38 40 38 39 40 39 39 40 35 33 34 34 33 33 32 30 29 27 26 26 26 25 29 29 30 29 29 29 26 24 25 25 25 27 27 26 27
22 23 21 29 31 35 37 37 39 39 38 39 40 41 38 33 34 34 34 34 33 32 29 28 27 26 27 29 31 31 31 30 31 27 24 24 24 27 27 25 25 25 27
22 23 23 30 34 33 34 38 39 39 39 37 37 39 39 37 36 36 35 34 33 32 29 27 27 26 28 31 31 30 30 31 29 26 24 24 25 24 24 25 25 26 27
24 30 29 34 35 36 37 39 40 39 39 39 38 40 38 40 38 36 35 34 32 29 26 26 27 28 30 30 29 26 29 32 26 25 24 23 22 23 25 25 24 25 25
25 29 29 31 31 34 35 38 38 39 39 40 40 40 43 40 38 36 34 31 30 29 29 28 29 30 29 28 28 27 29 28 25 24 23 22 23 24 24 24 25 25 24
16 26 26 29 30 31 34 35 38 39 39 40 41 41 44 42 38 35 32 30 30 31 32 31 31 30 29 28 29 28 29 27 24 24 22 22 22 22 24 24 23 24 24
16 23 23 19 23 26 27 30 34 39 38 40 41 42 44 42 37 32 31 31 30 31 33 31 30 29 29 28 27 27 27 26 22 23 22 21 22 22 22 22 22 22 23
14 17 16 19 21 23 21 24 28 32 38 41 41 41 43 42 38 33 31 27 28 32 32 31 30 28 27 26 26 26 26 25 21 21 20 21 22 21 21 21 21 21 22
9 14 14 17 29 28 29 25 27 31 36 41 42 42 41 39 35 32 27 28 29 33 33 30 28 27 26 25 23 24 21 19 19 19 20 22 21 20 20 19 20 20 20
13 16 17 16 18 23 26 32 33 33 34 36 39 39 35 38 34 29 30 30 31 33 31 29 27 27 23 20 20 20 16 18 17 17 18 21 19 20 19 18 18 18 18
24 26 25 21 26 28 25 31 43 38 34 34 36 36 37 38 37 35 32 30 30 31 25 27 27 20 20 18 18 16 17 15 16 17 18 18 17 17 17 16 16 15 15
24 19 19 17 24 25 28 29 32 33 32 31 36 39 41 37 39 37 35 31 30 29 28 27 24 25 22 20 18 18 16 15 14 14 16 17 15 15 16 15 14 14 13
16 20 18 18 24 25 28 28 34 30 32 31 37 39 42 41 39 37 33 32 30 29 30 29 26 23 21 19 17 16 16 14 14 13 13 16 15 15 15 15 14 14 12
18 20 22 22 27 28 30 31 26 30 33 31 29 39 39 39 38 36 33 30 31 29 27 26 25 22 19 18 17 16 15 14 14 13 12 13 14 13 14 14 14 13 13
14 21 23 26 27 31 30 31 29 32 32 29 27 36 36 34 36 36 32 30 27 28 26 25 22 21 20 18 16 15 15 14 13 13 12 12 13 14 12 12 14 14 14
17 19 26 27 30 33 31 31 33 35 35 31 27 33 38 37 37 34 33 31 27 26 25 24 23 21 19 17 17 15 14 13 12 11 13 12 11 11 12 13 12 12 15
11 16 25 29 30 27 31 32 30 33 34 30 29 28 28 33 34 33 32 31 28 25 24 23 22 21 20 18 15 15 15 13 12 12 11 11 12 12 11 13 15 15 15
10 13 18 26 32 27 30 28 26 28 28 32 34 35 31 28 33 33 31 30 27 25 24 22 22 21 19 18 14 15 15 13 16 13 11 12 13 12 12 13 14 15 18
11 11 14 16 32 30 31 28 26 29 28 28 34 32 36 29 34 33 31 28 27 27 26 23 21 21 18 17 11 7 10 16 17 17 16 15 15 14 14 14 13 13 16
14 14 13 17 25 32 31 30 27 33 29 24 27 33 38 35 37 35 30 29 27 27 25 23 24 19 12 20 9 5 4 8 17 21 20 19 18 17 17 17 16 17 15
18 17 16 18 28 33 31 29 24 31 26 26 30 28 27 36 36 33 30 29 24 26 25 25 26 23 14 20 21 7 3 5 3 8 20 22 22 21 21 21 20 20 19
20 18 17 16 23 24 34 33 36 36 30 30 32 33 30 31 30 31 28 17 22 26 26 24 23 29 23 16 17 24 14 3 4 2 5 9 18 22 23 24 24 24 23
22 22 21 19 24 28 31 30 31 31 31 23 31 31 31 31 33 33 26 29 28 22 24 20 22 27 27 20 21 11 16 15 11 9 5 6 12 18 20 22 25 23 24
22 21 23 25 24 28 29 30 31 30 31 24 33 35 34 30 33 34 34 31 34 31 26 23 23 22 24 25 21 24 21 10 14 12 8 11 14 9 13 17 20 22 21

GFSSE_925_spd_060.txt.gz
Wind_Speed
14 20 26 26 30 37 38 33 33 33 34 34 33 34 35 38 32 30 31 29 28 27 25 24 24 24 26 25 26 27 30 29 29 29 29 28 27 27 28 29 28 28 30
14 19 23 21 29 37 41 37 36 35 35 35 33 33 37 38 34 33 32 30 28 26 24 24 24 23 24 25 29 32 32 31 32 31 29 28 27 27 27 29 28 28 29
13 20 23 18 27 31 35 38 40 38 38 36 34 34 35 39 37 34 33 31 30 27 25 24 25 24 24 26 29 30 30 32 29 27 24 22 24 25 25 25 25 25 26
14 22 23 22 26 30 35 39 41 40 40 38 37 38 37 37 39 34 33 33 31 28 26 25 25 25 24 27 27 26 27 30 27 22 21 22 22 22 23 23 26 25 25
14 24 23 24 25 26 33 39 40 40 38 37 37 37 36 36 38 36 35 34 31 29 26 25 25 25 25 27 26 28 29 28 25 22 23 21 20 21 24 23 25 25 25
16 22 25 27 25 28 33 37 39 39 39 39 38 37 36 36 37 38 35 35 32 29 27 25 24 26 27 28 29 29 29 27 22 22 22 22 21 21 22 23 24 24 24
15 18 22 26 29 27 32 35 38 39 41 40 38 37 37 37 39 39 37 36 31 29 27 26 26 29 29 27 28 30 27 22 21 21 21 22 22 21 23 22 23 23 23
10 20 20 25 30 29 32 35 39 39 40 39 38 38 38 38 40 41 37 33 31 27 28 28 28 29 27 26 29 26 25 22 21 22 22 21 21 22 22 22 22 22 23
8 11 18 14 18 21 26 34 34 40 38 37 38 39 38 39 39 40 36 32 31 30 30 31 30 29 28 28 28 27 22 20 20 21 22 21 20 21 21 21 22 22 22
6 10 18 24 24 19 17 27 29 33 39 39 38 39 40 40 38 37 36 33 33 33 32 31 30 29 27 27 26 25 24 21 19 19 19 21 20 20 20 21 21 21 21
6 12 13 20 20 27 29 20 23 31 36 39 39 40 40 32 31 34 31 35 34 33 32 31 30 29 27 26 25 24 17 17 16 17 18 22 21 20 19 19 20 20 21
6 18 20 20 22 23 28 31 23 26 32 38 39 37 34 30 30 27 30 33 34 33 31 30 30 28 24 20 21 15 14 15 14 15 18 21 19 19 19 18 18 18 19
9 17 14 16 19 20 29 22 23 22 29 31 33 36 31 29 28 26 29 29 31 31 26 25 27 20 19 18 15 13 15 14 14 16 19 19 18 18 17 18 17 17 17
9 15 15 14 16 22 28 34 33 28 37 38 39 35 31 29 28 27 29 28 30 27 25 23 21 17 17 16 15 16 14 14 14 15 17 17 17 17 16 16 16 14 14
12 10 12 11 14 21 25 31 37 31 37 38 38 31 29 29 28 28 29 28 28 25 25 23 18 17 16 16 16 15 13 13 13 14 15 17 16 18 17 15 15 15 13
13 14 13 13 15 16 15 22 29 25 41 38 36 29 30 29 30 26 28 26 24 23 22 21 21 19 17 16 15 14 12 12 11 11 12 14 14 15 16 16 15 14 15
12 13 14 15 16 16 17 21 26 26 32 36 33 28 28 28 28 25 25 23 23 22 21 20 20 17 16 15 15 13 12 12 11 11 11 11 13 15 15 16 16 16 16
9 16 15 16 21 20 20 25 26 29 31 34 31 27 28 31 32 23 23 21 21 20 20 19 18 17 16 16 15 13 12 11 11 10 9 10 11 11 16 16 16 17 18
11 12 18 19 22 25 24 23 27 32 35 26 24 23 23 25 26 19 19 20 21 19 19 18 17 17 15 14 14 14 12 11 12 10 11 11 11 11 11 14 17 16 17
13 14 16 23 22 25 26 26 25 29 33 34 23 22 24 25 17 18 19 20 20 19 19 17 16 14 15 15 14 13 12 12 11 12 11 11 12 14 13 12 14 16 18
14 13 17 23 26 28 25 27 25 25 32 34 30 20 24 24 27 23 21 21 21 20 19 18 15 15 13 13 12 10 10 11 13 12 12 12 14 15 14 14 15 14 16
17 16 14 18 27 27 28 31 29 26 25 35 32 27 23 25 25 23 21 22 21 19 18 18 16 14 14 16 12 11 6 11 16 18 16 18 17 16 16 16 15 15 14
17 16 17 18 28 33 30 28 26 22 22 24 32 33 28 23 22 24 26 22 22 19 19 17 17 17 13 15 16 9 4 6 7 12 19 20 18 19 19 18 22 18 18
18 17 17 18 21 28 30 31 32 35 30 29 31 29 28 25 25 26 26 23 21 20 18 17 16 16 17 16 15 18 13 4 5 4 9 14 18 24 22 21 21 21 21
19 19 18 18 20 24 31 30 34 32 32 28 28 30 30 26 23 28 28 23 22 21 17 15 12 17 18 21 17 12 16 14 12 8 3 6 9 16 19 21 20 20 21
20 20 20 22 22 24 32 32 32 31 30 27 26 26 28 26 30 35 36 31 26 26 22 21 16 19 20 21 21 20 17 10 15 13 8 9 14 14 18 19 19 20 19

GFSSE_925_spd_063.txt.gz
Wind_Speed
5 14 22 19 26 29 31 32 32 31 29 29 28 29 25 27 31 29 28 30 27 25 23 24 25 24 25 24 26 28 30 31 31 31 30 28 27 28 29 30 29 29 31
6 9 22 19 24 30 33 34 34 32 31 30 29 30 26 26 26 31 31 30 28 27 23 25 25 25 25 25 29 30 31 32 31 31 29 28 28 29 29 30 28 28 28
7 9 18 17 21 29 31 31 31 35 35 32 30 30 29 27 29 31 32 32 28 26 22 23 24 24 26 29 32 32 31 30 29 26 25 24 24 25 26 26 27 26 26
5 11 15 17 21 24 29 29 29 33 35 34 32 31 30 31 29 31 33 30 28 26 23 22 24 25 27 29 30 31 29 28 27 25 22 21 22 23 23 23 25 25 25
7 15 15 18 19 22 28 31 32 35 35 35 35 34 34 31 32 32 32 31 31 27 25 24 24 25 29 29 30 30 26 20 17 19 19 20 21 21 22 23 24 25 25
7 12 19 20 19 19 24 32 31 34 35 37 36 37 35 34 32 31 31 33 32 28 26 25 23 24 26 26 27 27 27 22 21 20 21 22 20 21 22 25 24 24 25
6 11 14 21 24 24 26 28 33 38 38 37 37 37 35 34 34 32 31 32 31 29 26 25 24 27 25 27 30 28 23 21 19 20 20 20 21 22 22 23 23 24 24
7 9 13 19 23 20 22 30 32 39 42 41 40 38 36 35 32 30 30 31 32 30 27 26 27 27 27 28 28 22 17 19 19 20 20 20 21 21 21 22 23 23 22
6 7 10 14 22 20 18 28 27 38 42 42 41 38 37 34 33 34 30 31 30 30 29 28 27 26 26 28 25 25 20 19 19 19 20 20 20 21 20 20 22 22 21
6 9 9 12 20 28 28 28 17 22 43 43 39 39 38 38 36 32 30 29 29 30 30 29 27 25 26 25 26 22 22 20 18 19 18 20 20 20 20 20 21 21 21
5 8 12 15 17 19 21 20 15 29 40 41 41 39 38 32 33 32 26 29 31 31 30 28 27 27 26 25 25 26 17 16 16 16 18 22 20 19 19 18 19 20 20
4 7 12 16 16 16 21 26 29 30 36 40 37 36 33 30 30 27 26 31 32 31 29 28 27 27 22 19 17 13 9 14 15 15 18 21 20 19 19 19 18 18 19
5 10 9 12 11 12 18 22 25 14 29 33 33 35 31 31 28 28 29 31 29 29 24 24 27 21 18 18 13 10 15 13 15 16 20 20 19 18 18 17 18 17 17
5 14 11 10 9 10 14 17 24 24 31 31 34 33 30 29 26 26 28 28 27 25 24 23 20 19 17 16 11 15 13 14 16 16 18 18 19 17 18 17 17 16 16
7 12 14 11 9 10 13 17 17 23 18 37 33 29 25 25 25 27 29 29 27 24 24 22 17 18 17 15 14 14 14 13 16 16 17 18 18 17 16 15 15 14 13
10 12 12 12 10 10 14 17 21 24 31 35 36 33 27 26 22 25 30 29 28 27 24 21 18 18 17 17 15 14 14 14 14 15 15 16 16 18 18 17 15 14 14
11 11 12 11 10 14 14 21 25 32 33 37 38 37 32 25 22 23 26 29 27 27 25 20 18 19 18 17 16 14 14 13 13 14 15 15 16 18 19 18 18 17 16
14 16 15 12 14 15 13 15 20 18 35 36 37 32 33 29 23 22 22 21 22 20 20 19 21 20 19 18 17 15 14 13 13 12 13 15 15 15 20 19 20 18 20
15 15 16 15 17 17 14 16 17 17 32 39 37 31 32 26 26 20 21 19 21 21 20 19 19 18 17 18 17 16 14 13 13 13 12 12 13 15 15 20 21 21 22
16 15 17 17 17 20 17 21 20 25 31 37 35 26 27 26 24 20 19 18 17 19 18 18 17 17 17 16 16 14 13 13 13 12 13 14 14 14 13 16 19 21 23
18 18 17 19 22 25 23 24 24 24 31 31 32 26 28 27 24 19 16 20 19 19 19 17 16 16 15 14 14 13 11 11 12 14 14 15 15 16 15 15 16 18 22
17 18 17 23 27 28 28 23 22 25 30 33 30 25 24 27 28 30 22 19 21 16 19 20 19 16 15 15 14 14 7 11 16 18 17 17 18 17 17 17 18 19 17
18 19 19 21 27 29 28 25 20 24 24 28 29 28 27 26 25 25 23 20 23 20 21 21 20 18 16 16 16 11 5 7 16 20 22 19 18 17 17 17 20 20 21
18 18 20 21 25 30 29 31 30 30 30 36 34 29 35 33 23 23 25 24 23 23 23 23 20 18 17 16 12 16 15 11 2 5 13 19 17 18 19 21 17 21 23
20 20 20 22 23 25 29 28 33 30 28 29 35 30 29 37 33 30 30 37 27 24 23 21 20 19 18 19 16 13 16 16 15 9 6 9 11 16 22 21 25 21 26
20 20 19 22 22 25 29 31 33 34 30 28 30 34 34 32 31 34 34 35 38 27 27 25 22 21 20 16 19 18 18 15 16 14 10 14 15 15 24 25 23 22 29

GFSSE_925_spd_069.txt.gz
Wind_Speed
10 16 18 21 24 23 20 19 21 21 20 18 18 20 21 23 25 27 28 28 28 29 28 25 25 24 27 29 33 35 35 35 36 35 34 31 31 31 32 36 36 35 33
12 16 17 20 23 23 20 19 20 20 20 20 20 21 21 23 24 25 27 29 29 30 28 27 27 26 28 31 34 35 36 36 36 34 32 29 29 29 30 33 33 31 29
11 13 17 19 22 22 23 22 21 21 21 21 22 24 24 24 26 26 30 31 31 30 29 27 28 28 30 34 35 35 35 35 33 30 30 30 28 27 28 28 28 28 28
7 11 14 18 20 23 24 25 25 24 23 23 23 25 27 26 28 28 28 30 31 30 29 28 29 30 34 33 33 32 31 30 32 30 28 28 27 27 27 26 26 27 27
8 10 12 18 22 23 24 26 26 26 27 25 25 27 30 30 31 32 30 29 31 30 28 28 29 35 35 34 32 32 30 27 28 28 26 26 26 25 25 26 25 25 27
8 11 13 14 20 21 24 25 26 27 28 28 27 28 31 33 33 34 33 29 28 28 27 27 30 34 33 34 34 35 25 27 31 28 25 25 25 23 24 25 26 25 25
10 9 12 15 17 19 23 26 28 30 30 32 31 32 30 34 34 32 30 28 28 28 27 29 35 35 33 30 27 22 19 31 30 30 26 24 24 23 24 25 25 25 24
9 10 9 14 16 16 23 25 28 26 26 28 30 33 29 36 33 31 30 29 28 29 29 34 34 34 32 26 23 28 30 28 26 26 26 24 24 24 24 25 25 26 25
10 9 8 9 17 17 20 24 24 20 24 14 25 34 37 37 34 32 32 32 30 27 28 35 33 33 30 24 23 21 30 24 22 28 27 23 24 24 24 25 24 25 25
9 8 5 10 13 14 14 15 18 18 31 15 18 21 35 39 38 35 33 31 30 27 32 33 32 30 30 26 20 34 27 25 26 28 26 24 23 23 24 24 24 23 24
8 8 7 9 11 12 17 17 16 14 20 19 36 32 30 38 39 37 33 31 27 28 32 31 31 31 30 25 30 32 30 28 25 27 25 23 23 22 23 23 23 23 22
11 10 9 10 11 13 14 18 16 13 24 28 33 32 38 38 39 37 35 30 27 30 33 31 33 31 28 28 31 18 31 28 26 27 25 23 21 21 22 21 21 21 21
14 12 11 10 10 12 13 13 11 12 20 27 37 21 37 38 37 37 35 33 30 30 31 31 32 30 30 28 26 18 31 27 27 28 24 21 20 19 20 19 20 19 19
15 10 10 11 13 13 12 12 10 16 17 25 28 28 36 36 37 36 36 36 35 32 32 33 31 32 30 24 14 10 28 26 25 28 24 21 21 19 19 18 18 18 17
17 13 10 13 14 11 9 9 12 15 17 25 32 37 41 38 36 38 37 37 35 35 34 34 31 33 27 16 16 23 26 24 25 28 25 21 19 20 18 17 17 17 16
17 16 13 14 12 10 9 9 13 18 14 20 34 40 42 41 39 38 39 36 34 36 35 35 33 31 21 14 16 14 22 25 22 27 26 23 21 20 19 17 17 16 15
16 17 15 17 14 11 11 11 16 13 20 25 33 37 43 41 39 40 41 38 34 33 37 33 26 25 19 19 19 15 26 25 21 23 26 24 22 21 19 18 17 16 15
20 18 21 18 16 14 14 13 15 18 22 34 30 33 35 39 38 37 39 38 33 32 36 31 22 30 22 21 18 21 24 23 22 21 25 24 23 23 23 21 20 18 17
22 21 18 16 16 17 17 16 18 19 26 35 37 41 37 36 36 38 40 37 31 33 31 28 23 31 27 24 19 17 18 25 23 23 23 24 25 25 25 23 22 19 20
24 21 20 18 19 19 16 17 19 22 28 36 37 41 36 34 33 38 38 39 32 35 32 27 33 30 29 28 25 20 19 17 22 22 23 24 26 27 25 25 27 25 24
27 26 25 22 22 22 19 19 18 21 25 31 37 36 35 32 28 38 39 39 29 35 30 31 33 30 28 30 26 23 21 22 23 21 21 27 26 25 25 26 28 28 29
31 27 25 24 25 24 23 22 17 17 22 29 34 39 41 35 27 35 36 33 23 33 23 28 32 25 27 31 18 19 3 6 23 23 22 26 24 26 28 31 27 29 29
31 31 29 26 25 24 23 22 21 19 21 22 30 37 38 38 29 31 31 41 24 30 28 24 25 25 21 20 14 16 3 4 5 16 24 28 26 26 28 26 25 27 30
30 32 28 26 29 28 25 23 27 21 21 20 29 34 33 32 33 32 33 35 34 29 31 30 25 24 23 19 15 17 17 9 4 1 18 27 29 30 32 31 30 32 30
33 33 30 29 28 29 30 29 28 21 23 25 25 31 29 29 31 29 29 27 27 27 26 27 25 24 22 24 27 24 23 16 11 3 3 8 27 29 32 33 33 33 35
33 33 32 30 28 30 31 29 29 26 25 24 24 27 29 27 32 34 32 29 27 30 30 30 28 27 29 30 28 29 24 12 14 7 2 5 15 28 36 34 37 37 36

GFSSE_925_spd_072.txt.gz
Wind_Speed
11 14 17 20 22 23 25 23 20 18 18 20 25 31 35 38 37 36 35 33 31 30 27 27 27 26 27 29 30 31 32 33 34 33 32 30 30 30 31 34 34 32 32
14 15 18 21 22 24 25 25 23 21 19 20 23 28 31 33 32 32 32 31 30 29 27 27 28 27 30 31 33 35 34 33 33 32 32 29 28 29 30 33 33 31 30
14 15 18 22 22 23 24 26 25 22 21 21 24 26 28 30 31 31 30 30 31 29 27 27 26 27 30 32 34 36 36 35 32 32 32 30 28 27 27 27 28 26 25
16 17 19 21 23 23 24 25 25 24 22 22 24 26 28 29 30 32 32 31 31 30 27 27 27 28 33 34 35 36 34 32 30 32 31 28 26 24 24 24 25 25 24
16 20 20 21 24 24 24 24 25 24 23 24 25 27 28 28 31 32 32 31 30 30 29 28 28 32 36 35 34 34 33 32 30 29 29 27 26 24 24 24 25 25 25
16 18 18 19 23 25 24 24 25 27 27 28 30 30 29 30 31 30 31 33 31 29 28 29 32 37 36 34 32 32 31 30 29 26 26 26 26 23 23 23 24 25 25
18 14 19 20 20 24 26 27 28 29 29 30 32 32 30 31 32 33 32 32 31 29 29 32 35 36 36 36 28 28 29 28 29 26 24 22 21 23 23 23 24 24 24
14 13 17 19 19 21 24 26 29 32 34 32 31 32 33 31 32 33 32 29 30 31 29 36 36 36 36 27 25 27 27 28 30 27 23 22 21 21 21 22 24 24 25
12 12 14 17 20 22 23 23 26 29 29 22 17 19 21 24 24 31 32 31 32 30 34 35 35 34 29 23 31 31 28 29 30 27 22 22 21 20 21 22 23 23 24
14 13 12 15 19 20 18 23 26 25 27 18 15 24 20 24 26 30 31 32 31 29 39 35 33 30 25 29 32 30 27 26 29 29 23 23 21 21 21 21 22 23 23
13 13 13 14 16 17 16 16 18 19 30 33 35 25 35 23 31 32 34 33 31 32 38 35 33 29 22 28 32 29 26 28 30 28 24 22 21 21 21 21 21 21 22
15 14 12 13 15 17 19 19 19 18 31 37 30 31 29 22 34 35 34 33 30 35 37 34 32 28 30 37 34 28 24 28 29 28 24 24 22 22 20 20 20 20 20
18 14 13 13 13 18 18 20 21 23 27 32 32 31 22 32 34 37 36 32 32 37 36 33 31 28 37 31 27 28 29 28 29 28 25 24 23 22 21 20 19 18 18
19 16 15 14 13 14 16 19 19 21 24 29 31 37 32 29 35 38 36 35 34 39 36 35 33 30 32 23 26 30 29 28 30 29 26 24 23 22 21 20 19 18 18
22 16 15 16 16 15 14 14 15 18 21 29 32 38 35 42 42 38 36 36 38 39 38 39 35 32 28 23 21 31 28 28 29 30 27 24 23 21 20 19 18 18 17
22 19 17 17 17 16 12 13 14 16 22 23 33 42 29 42 42 36 36 39 41 41 40 40 36 33 26 17 19 30 26 26 30 29 27 24 22 21 19 18 18 18 18
25 22 21 20 17 13 11 10 11 17 15 20 30 33 26 41 44 43 42 40 41 40 40 37 33 29 23 16 24 28 26 27 28 28 27 25 24 21 21 18 18 17 16
28 26 22 21 18 16 13 12 12 13 17 17 26 38 36 42 45 42 43 40 40 39 40 38 35 31 23 19 25 27 28 28 27 27 26 26 24 23 21 20 20 19 18
30 30 25 24 21 18 16 13 15 12 17 20 30 35 35 38 42 42 43 41 39 39 40 36 33 29 24 22 22 25 29 27 27 27 25 25 25 24 23 22 20 19 19
32 32 28 22 19 18 19 18 16 16 20 26 33 35 38 37 38 40 40 41 40 41 39 34 31 28 27 25 22 25 25 26 26 26 24 24 25 25 25 24 23 21 20
33 32 30 25 23 21 20 21 18 17 21 27 29 33 37 37 35 39 37 40 42 42 42 37 28 32 32 28 24 23 23 25 26 24 25 26 28 27 27 26 26 26 26
34 35 32 29 26 23 20 20 18 21 21 28 29 35 34 37 34 34 37 38 39 39 41 37 29 28 26 34 18 18 4 7 22 27 27 28 28 29 28 28 29 30 29
29 33 32 33 31 27 23 20 19 18 18 22 25 27 30 34 34 34 34 36 38 39 39 34 31 32 24 34 29 16 3 4 7 15 26 28 31 32 30 31 31 32 33
29 32 34 33 31 28 27 24 23 18 15 18 20 27 28 30 28 28 34 37 32 33 31 34 33 32 31 27 23 27 17 12 3 1 19 28 31 34 33 33 33 33 35
30 31 35 32 30 29 28 27 23 19 18 19 24 25 30 35 30 26 31 36 36 33 33 29 22 22 31 34 26 25 19 14 12 4 4 9 27 33 34 35 33 34 34
28 27 33 33 33 32 30 28 27 24 22 21 24 26 26 33 33 25 25 32 28 27 29 32 24 24 27 34 29 29 28 15 12 6 2 6 12 26 36 35 36 38 39

GFSSE_925_spd_075.txt.gz
Wind_Speed
11 17 17 19 20 20 20 23 25 25 26 27 33 35 37 37 37 36 35 33 30 27 25 25 27 27 23 24 26 27 28 28 29 28 28 28 27 27 29 31 31 31 31
15 19 19 20 22 22 21 23 24 26 26 28 33 36 36 38 37 35 34 32 30 27 25 25 28 27 27 28 29 31 31 31 30 29 28 28 27 27 27 31 31 30 31
18 19 21 23 25 24 23 23 24 24 27 28 31 34 36 37 37 36 34 31 28 27 26 26 26 27 27 32 32 33 32 32 30 29 29 28 27 26 28 28 28 27 27
19 20 21 22 25 26 25 24 23 23 24 27 30 33 35 34 35 34 32 30 28 28 27 27 27 26 29 31 33 33 32 31 30 28 29 27 25 24 23 23 23 23 22
19 19 19 21 24 25 26 25 24 23 24 26 30 32 33 33 32 32 31 30 28 30 27 27 27 27 32 33 33 33 32 31 30 29 28 25 23 20 20 20 20 21 21
21 20 19 20 22 25 25 25 25 24 24 26 29 31 33 32 33 32 31 30 30 28 27 29 30 33 34 36 34 32 29 29 29 29 26 22 20 20 19 20 21 21 22
20 20 19 19 21 24 25 26 26 25 25 27 30 31 32 33 34 33 33 32 30 31 29 31 33 35 36 34 33 31 30 28 27 25 24 22 20 19 19 19 20 20 20
16 19 20 21 22 23 24 25 25 26 27 28 31 31 28 32 30 33 33 33 31 29 30 32 35 36 34 32 30 30 28 26 25 23 21 19 18 19 19 20 18 19 19
15 17 20 21 21 22 24 25 24 24 24 20 23 23 18 21 20 28 30 29 31 32 33 32 35 34 33 31 29 27 27 26 26 23 21 20 18 18 19 18 19 19 19
16 15 17 20 22 22 24 23 23 23 22 26 18 17 21 15 19 18 24 28 30 33 36 35 36 34 30 29 29 28 27 27 27 25 22 20 20 19 19 19 18 18 19
16 16 16 18 19 20 19 21 22 25 31 30 29 25 26 25 27 23 26 28 30 32 36 37 34 28 27 30 30 29 27 27 27 27 24 21 21 20 20 19 19 18 19
18 17 16 16 17 17 17 17 18 21 31 29 31 35 34 32 28 26 24 29 28 34 36 36 31 27 31 34 30 28 27 28 27 26 25 22 21 21 21 21 20 19 18
22 18 16 15 15 17 17 19 20 20 27 31 33 38 39 38 36 32 26 28 30 37 37 35 29 33 34 33 31 28 28 28 27 25 25 22 21 21 20 19 20 19 19
22 20 16 15 15 16 17 20 23 25 31 32 34 37 40 34 35 32 31 35 35 41 37 36 32 33 37 34 31 27 28 29 27 26 24 22 21 20 19 19 19 19 19
24 21 19 16 15 16 18 20 23 24 27 32 33 35 42 41 30 31 34 38 37 42 39 36 31 35 36 33 28 27 29 28 27 27 26 23 22 21 20 18 18 18 18
26 23 20 18 16 17 19 18 20 22 26 30 36 37 41 32 36 37 36 39 37 43 41 38 36 35 32 30 29 28 27 27 28 28 27 24 22 21 21 19 18 18 18
30 24 21 22 19 19 18 18 19 20 21 24 30 35 37 42 35 37 35 37 40 45 42 41 36 34 28 26 31 29 28 29 28 27 27 25 23 21 21 20 19 19 18
29 25 23 23 24 20 17 16 15 18 19 21 26 29 38 35 36 39 37 41 41 43 40 42 37 33 26 27 32 31 29 27 27 27 26 24 24 22 20 20 20 19 18
29 28 26 25 24 19 14 11 10 9 16 18 24 26 35 28 45 40 38 41 41 43 41 42 36 34 28 29 31 30 27 27 27 26 25 25 24 23 22 21 21 20 18
31 29 27 26 23 20 15 11 9 9 12 14 20 33 25 36 41 37 36 40 42 41 39 40 36 29 27 28 25 24 25 26 26 26 26 24 24 23 23 22 22 21 20
30 31 30 29 25 21 19 16 11 10 10 14 21 27 32 38 33 33 34 37 40 41 40 39 35 29 25 27 24 16 17 21 24 25 25 24 25 25 24 24 24 24 22
29 31 33 30 26 23 20 18 12 14 11 14 19 27 27 31 29 29 31 36 35 35 40 37 36 26 23 28 14 15 3 4 19 24 25 26 25 25 27 27 27 27 26
28 31 34 31 27 24 20 20 15 15 9 13 16 22 28 33 38 36 31 35 34 34 39 40 34 30 20 29 22 10 3 3 6 15 26 28 27 28 28 30 31 31 31
29 31 31 30 29 26 24 22 22 15 11 13 21 23 26 32 32 37 33 34 36 33 37 40 35 31 30 24 22 22 16 9 3 2 12 28 27 29 32 35 35 34 34
27 28 26 24 24 26 27 23 25 19 15 14 17 21 23 25 36 36 37 32 30 34 34 39 35 29 34 28 31 26 18 13 13 4 3 10 27 32 37 39 39 38 36
25 25 25 25 24 28 29 26 25 23 20 17 20 20 24 22 26 32 28 31 34 29 29 34 34 32 28 27 37 30 28 14 9 6 2 6 11 22 38 40 41 41 39

GFSSE_925_spd_078.txt.gz
Wind_Speed
15 14 15 18 20 20 22 23 23 23 27 30 32 32 32 32 32 32 31 30 29 29 30 28 25 23 22 23 26 25 24 25 26 27 26 26 24 24 25 27 28 27 27
15 17 18 20 21 21 22 23 23 24 28 29 31 31 31 33 33 32 32 30 29 28 29 29 26 23 22 25 26 26 27 28 28 27 26 26 26 25 26 28 28 29 28
17 18 19 21 22 23 23 24 24 25 27 30 31 32 33 33 33 32 32 30 28 27 27 28 26 24 25 28 29 30 30 30 30 28 27 27 26 25 27 28 28 28 27
19 19 20 22 23 23 23 26 25 25 27 30 33 34 36 35 34 32 29 27 26 27 27 26 26 27 29 31 32 32 31 30 30 30 28 26 26 24 25 24 24 25 25
20 19 19 22 22 22 24 23 25 25 26 29 33 35 36 37 36 33 31 28 26 28 27 27 27 29 32 34 33 32 31 30 29 30 29 26 24 22 21 20 19 20 21
20 18 18 19 22 22 24 24 22 24 26 28 31 35 36 37 37 35 32 29 26 27 27 28 28 31 33 33 33 32 31 30 29 28 27 24 23 19 18 17 18 18 18
20 18 18 18 22 22 23 24 23 22 25 28 31 33 35 37 35 34 32 28 27 28 27 28 29 32 34 34 33 32 30 30 29 27 25 21 18 17 18 17 18 18 18
18 18 16 18 20 21 22 24 24 24 24 26 29 29 29 27 26 21 28 27 28 28 30 29 31 33 34 34 32 30 29 30 28 26 23 19 19 18 18 18 17 18 18
16 17 18 19 21 20 21 21 22 23 22 21 21 17 16 13 20 21 25 28 27 28 31 31 33 34 34 32 31 29 28 28 26 24 22 20 18 18 18 17 18 18 17
15 17 19 21 20 20 20 20 21 23 22 24 21 25 31 25 12 18 20 25 27 29 32 35 34 34 32 30 29 27 26 24 25 24 23 21 19 18 17 18 18 19 19
16 17 19 21 21 20 21 21 20 21 23 28 26 31 32 29 21 21 24 22 29 31 32 34 34 33 30 27 27 26 26 25 24 25 24 21 19 20 18 19 19 19 20
22 21 19 19 20 21 20 18 20 24 24 29 36 34 27 28 24 31 26 26 28 32 34 35 34 30 29 29 27 26 25 23 25 26 24 22 20 19 18 18 19 19 20
26 22 21 19 19 19 20 17 19 20 29 35 36 34 32 30 31 32 33 26 26 32 33 34 33 31 30 31 30 27 25 24 24 25 23 21 19 18 19 19 19 19 19
24 23 20 19 19 17 18 18 20 23 34 34 34 31 30 34 32 37 32 28 30 33 36 36 34 32 32 32 29 26 24 24 25 25 23 22 19 19 19 19 19 18 18
24 23 22 20 19 18 18 18 21 24 28 30 33 35 38 35 34 36 33 30 33 38 39 34 33 35 34 31 28 25 25 25 24 26 24 22 20 18 18 18 18 18 18
27 27 24 21 18 20 20 20 23 25 27 30 32 35 39 37 39 32 29 33 33 38 40 35 34 36 35 32 28 26 26 25 25 26 24 22 22 20 18 17 17 18 18
30 26 24 22 19 20 21 18 22 26 27 28 30 34 38 37 35 34 32 32 36 39 40 35 32 35 34 32 28 27 27 26 25 25 25 24 22 20 19 18 17 17 17
28 26 24 21 21 22 22 20 20 20 21 24 29 33 34 38 32 30 31 34 40 39 41 36 33 34 34 32 29 29 26 25 24 26 25 24 23 22 20 19 18 17 16
28 29 26 23 24 23 21 19 16 17 19 22 23 28 35 40 39 33 34 36 42 41 42 40 38 36 32 30 30 28 26 27 26 24 25 24 24 23 22 21 20 19 18
28 29 25 24 25 23 19 16 13 12 15 19 21 25 31 36 34 26 36 37 40 40 40 41 39 34 32 30 25 25 23 24 25 25 25 24 23 22 21 21 20 19 18
28 28 25 26 28 24 20 19 15 15 12 15 20 28 30 30 38 36 34 35 37 40 43 41 39 33 26 27 25 14 14 18 21 23 24 25 24 23 21 21 20 20 20
26 22 26 26 27 25 20 17 11 14 11 10 11 19 28 32 35 39 37 35 36 35 39 39 37 30 22 31 15 14 3 3 14 21 23 24 24 24 23 23 22 22 23
26 26 25 28 25 26 20 18 12 13 9 8 19 19 23 23 27 24 29 31 33 36 40 41 39 34 24 32 24 8 3 3 5 13 23 25 25 26 27 24 25 25 26
27 24 25 29 25 22 23 21 18 11 10 10 17 22 21 25 27 24 20 23 30 32 34 37 39 35 32 26 24 8 12 12 3 2 11 25 26 29 28 26 26 28 29
26 27 29 29 25 21 23 20 19 16 15 12 12 13 21 25 27 31 28 28 31 33 36 39 38 33 29 29 23 19 12 11 11 4 3 9 25 32 31 31 32 32 32
22 25 29 27 23 21 23 19 20 19 17 16 13 13 16 20 24 33 35 31 30 32 33 35 37 34 32 27 35 29 22 11 9 5 2 4 15 22 35 32 35 35 35

GFSSE_925_spd_084.txt.gz
Wind_Speed
12 14 14 16 18 20 22 22 21 23 25 26 27 27 27 27 27 28 28 27 26 25 22 21 21 18 17 17 19 21 23 23 23 23 23 23 23 23 25 24 23 23 26
17 15 14 14 17 20 20 22 22 22 26 29 28 28 30 29 29 29 29 28 28 25 24 22 21 20 19 20 22 23 23 24 24 24 24 23 22 23 22 22 22 24 25
17 15 14 13 16 19 20 20 21 22 26 29 30 29 30 31 31 31 29 28 26 25 25 24 22 22 22 23 23 23 25 25 24 24 22 20 21 22 24 23 24 25 25
16 15 16 16 17 19 19 19 18 20 24 28 29 29 30 30 31 31 31 29 28 26 24 24 23 22 23 24 25 26 27 26 26 24 19 20 21 23 24 25 24 25 26
15 15 15 16 18 20 19 18 19 20 22 24 27 28 31 30 31 31 31 30 28 27 26 23 23 23 25 26 28 28 27 26 24 19 19 20 21 23 24 24 24 23 22
15 14 15 16 17 20 20 20 20 20 23 25 27 28 30 28 27 32 31 29 28 25 24 21 21 23 27 28 29 29 29 29 21 18 19 20 20 22 23 23 23 23 24
14 13 15 16 17 19 21 21 21 21 22 24 26 24 25 25 27 29 28 25 25 24 22 20 22 25 28 29 30 29 28 25 18 17 19 19 20 22 23 23 22 22 22
16 14 15 18 17 18 21 23 22 22 21 23 23 23 25 25 22 23 21 20 19 19 18 20 23 27 28 28 29 29 28 21 17 17 16 17 19 19 19 18 18 18 18
15 15 15 18 18 19 19 23 23 22 21 21 21 22 21 21 22 23 18 18 17 11 16 21 25 28 28 28 28 28 27 22 16 15 15 15 17 15 15 18 18 15 14
15 14 16 18 19 18 18 19 22 22 21 19 18 20 22 23 27 28 26 23 19 17 15 21 25 28 29 28 28 27 24 21 14 14 13 17 16 16 16 15 16 15 15
16 16 15 18 19 19 16 17 19 21 20 20 20 21 20 21 23 29 26 28 26 24 23 23 26 29 28 27 27 26 22 14 14 12 12 18 17 16 15 14 15 15 17
16 16 15 16 17 19 15 16 19 19 19 20 19 23 20 20 23 29 31 28 26 26 27 27 29 28 26 23 23 23 17 13 11 10 13 18 15 15 15 16 16 16 17
17 15 16 15 16 17 16 17 20 20 19 20 22 27 23 21 21 25 23 30 27 26 27 25 28 25 24 22 21 20 13 13 10 10 13 17 15 16 16 16 17 16 17
20 19 18 16 17 17 15 19 20 22 21 21 21 23 30 23 22 23 22 21 23 28 31 31 25 25 23 22 21 17 13 12 11 11 13 16 17 16 17 16 17 17 17
23 21 20 18 17 18 19 18 20 20 23 22 21 22 28 24 23 22 19 21 22 28 34 35 29 26 22 20 18 16 15 12 13 12 13 17 17 17 16 17 17 17 16
24 25 23 22 19 16 17 14 19 17 19 21 21 21 28 29 23 21 19 21 21 29 37 35 30 24 23 20 18 17 15 13 15 13 14 15 16 17 17 16 16 16 16
25 25 25 23 21 18 17 15 14 17 17 19 21 22 29 27 24 21 19 19 27 28 33 30 25 24 22 20 18 16 14 14 15 14 14 17 17 16 18 18 16 15 16
23 28 25 23 23 19 17 16 14 16 17 18 20 25 28 33 31 26 19 24 25 33 33 29 25 23 23 21 19 16 14 14 15 15 15 15 16 15 15 16 16 17 16
24 27 27 25 24 20 18 16 14 14 20 21 21 25 28 30 29 32 27 24 30 31 29 34 24 24 23 21 19 17 15 14 15 15 15 15 15 14 15 17 16 17 18
22 25 26 26 24 21 17 14 13 12 20 21 23 24 26 29 29 26 27 28 33 31 32 35 25 24 24 23 20 18 16 14 14 14 14 15 15 15 15 16 17 17 19
21 25 28 28 26 24 20 18 15 16 14 16 15 20 20 26 29 29 28 32 35 34 39 39 27 26 24 24 22 16 13 12 12 13 14 16 16 17 16 15 17 16 18
23 26 28 29 30 25 22 19 15 14 12 13 15 17 19 20 23 29 29 34 38 35 35 40 30 28 26 27 23 19 6 8 12 13 14 15 15 16 17 19 19 19 18
23 28 30 30 29 27 22 19 15 13 9 12 14 15 17 21 26 30 37 27 43 40 40 42 35 31 26 28 27 17 6 6 16 17 17 15 15 17 18 20 21 21 21
24 26 27 29 28 26 25 21 19 16 14 14 13 13 11 14 17 32 36 36 32 38 38 41 34 32 28 28 24 24 18 13 12 7 18 19 18 19 21 21 22 24 23
22 26 27 27 28 27 27 21 19 17 14 11 12 11 10 10 14 22 30 36 40 35 40 39 33 31 28 27 28 24 17 12 17 11 8 16 20 22 22 24 22 22 23
22 26 27 29 28 27 26 21 19 18 15 12 12 15 13 11 11 19 28 32 35 33 36 34 32 30 26 26 25 23 21 18 16 12 6 11 16 18 23 23 24 25 24

GFSSE_925_spd_087.txt.gz
Wind_Speed
8 14 17 16 16 17 18 19 20 20 20 19 19 19 19 19 19 21 22 21 22 22 22 21 20 17 15 14 14 13 14 16 18 20 21 21 22 23 23 23 22 21 24
14 15 18 17 16 18 19 19 20 21 21 21 21 21 20 21 21 22 22 22 23 22 20 20 18 16 15 16 16 18 19 20 21 23 23 22 23 22 21 21 22 23 24
16 15 18 17 17 18 19 20 20 20 22 22 22 22 20 22 21 24 23 23 24 22 21 18 18 17 16 19 20 20 20 20 22 22 21 19 19 20 23 22 23 25 24
16 15 15 18 17 18 18 18 19 19 21 23 23 22 23 23 24 23 22 25 24 22 19 19 19 20 19 20 21 21 21 21 21 20 16 19 19 22 22 24 24 25 25
16 14 14 13 15 18 17 17 17 18 20 22 23 22 22 25 26 24 23 25 23 21 20 20 19 19 20 21 22 23 22 22 21 14 17 19 18 21 23 23 23 24 24
15 13 14 12 14 15 16 16 16 17 18 19 20 24 24 23 22 22 21 24 23 22 22 21 19 20 21 22 23 23 23 23 19 17 18 20 19 23 23 24 24 25 25
15 14 13 13 13 16 16 17 17 16 17 18 20 21 21 21 21 23 24 25 25 22 19 17 17 20 22 22 24 23 24 20 16 19 18 18 21 23 22 23 25 25 24
15 14 12 15 14 16 17 17 17 16 16 18 19 18 18 21 23 22 22 20 15 12 11 13 15 19 23 25 25 25 23 14 13 16 17 20 22 22 21 21 22 21 21
14 13 14 15 15 15 16 18 18 17 16 17 16 18 18 20 20 21 21 19 17 14 12 12 14 19 23 25 24 26 22 16 16 17 18 19 20 19 18 18 18 18 18
14 13 14 14 14 13 13 18 18 17 16 16 15 16 17 19 21 25 25 23 21 18 14 15 13 15 19 23 23 25 20 15 13 15 15 18 18 17 16 16 15 15 15
16 15 13 15 14 13 13 13 17 18 17 16 15 16 17 17 22 26 27 23 21 22 19 19 16 16 20 22 24 24 20 13 13 17 14 18 16 16 15 15 15 15 14
19 18 15 14 16 16 13 12 14 15 16 16 16 16 17 19 20 22 27 26 18 24 23 20 24 21 22 20 23 20 16 11 12 14 18 18 16 15 15 14 15 14 15
22 19 18 16 16 16 14 14 13 15 17 18 19 18 19 20 21 22 22 25 25 24 23 24 25 25 24 21 21 20 13 15 13 14 19 17 15 16 15 15 15 15 16
26 23 20 18 18 19 16 15 14 14 14 15 18 19 19 19 21 23 22 22 23 27 27 28 30 26 25 23 23 21 15 18 18 23 18 17 17 16 16 14 15 15 15
26 26 23 22 20 20 17 17 15 15 14 17 17 18 19 20 22 21 22 23 22 22 28 28 28 28 25 23 23 21 18 15 13 13 14 16 16 17 16 15 14 15 14
24 26 23 24 22 21 20 16 16 15 15 18 22 16 20 19 21 21 21 22 21 20 28 30 29 27 26 23 21 19 18 13 12 10 14 16 17 17 15 15 15 15 14
25 25 26 24 24 22 19 17 13 14 17 19 19 17 19 19 19 22 21 18 17 16 24 28 30 26 25 23 24 20 17 14 15 14 14 16 16 16 16 17 17 16 15
25 26 27 25 25 23 20 18 13 17 17 15 17 16 18 20 20 21 19 16 19 20 22 29 33 28 26 25 22 20 17 15 16 15 16 16 17 15 16 18 17 14 15
24 24 28 27 26 24 21 17 16 12 16 15 15 16 18 20 18 20 19 18 20 22 22 30 31 29 25 21 22 20 17 17 16 16 16 16 16 18 17 18 17 16 16
23 25 29 27 25 24 20 16 15 13 14 14 14 17 17 22 23 24 25 19 21 27 27 31 31 28 25 24 24 21 18 18 17 17 16 16 18 15 17 18 17 17 18
20 25 29 28 27 26 22 20 17 15 15 14 14 16 19 20 22 26 26 26 28 32 32 34 32 32 26 31 19 20 11 15 11 10 12 17 18 17 17 19 16 17 19
21 25 28 28 29 27 23 20 18 15 14 15 14 13 18 21 23 26 26 25 31 29 30 33 32 28 26 28 23 18 6 4 12 14 15 14 13 17 17 17 16 17 18
22 25 28 29 29 26 23 20 17 14 11 13 14 14 18 20 19 21 23 27 27 34 35 37 34 30 23 27 28 19 6 6 14 17 16 17 13 17 18 18 19 18 17
24 25 27 28 29 27 25 22 21 19 15 15 16 15 13 12 14 17 21 28 34 32 33 38 36 31 28 25 26 22 17 16 11 6 17 18 17 17 18 20 20 20 20
28 25 27 27 28 27 26 22 21 18 14 14 14 11 13 9 9 14 22 30 33 32 40 40 36 31 31 30 27 24 19 15 23 13 9 17 23 23 20 21 18 19 22
28 25 25 27 29 27 27 23 21 18 14 14 12 14 10 8 6 9 14 24 34 31 35 41 43 40 32 29 28 25 18 15 13 12 6 15 19 20 20 19 21 20 20

GFSSE_925_spd_090.txt.gz
Wind_Speed
16 21 19 17 16 15 15 16 16 16 15 14 14 13 12 12 12 14 14 15 16 17 18 19 20 16 13 10 12 12 12 12 14 17 20 22 23 24 25 24 23 25 25
21 22 19 17 16 16 16 16 16 16 16 15 15 15 13 13 13 14 15 16 18 17 17 19 19 15 13 12 10 11 12 15 18 19 22 24 24 24 21 24 23 26 25
21 22 20 18 17 17 17 17 16 17 17 16 16 16 16 15 15 16 16 17 18 17 17 17 16 15 14 15 14 16 17 18 20 21 22 22 22 22 23 21 26 25 25
19 21 20 18 16 17 17 17 16 17 17 17 17 16 16 17 17 16 16 16 18 18 17 17 15 15 15 16 17 17 18 20 21 21 21 19 19 22 22 25 25 26 26
19 18 17 18 17 16 16 16 16 16 17 18 18 18 18 18 17 17 16 17 20 18 16 16 16 16 17 18 17 18 19 20 18 15 20 20 20 21 23 24 25 26 27
19 17 14 15 15 15 15 15 15 15 15 17 18 18 19 19 19 18 17 18 17 16 14 17 17 17 18 19 19 19 20 19 15 16 17 20 21 22 25 24 26 26 28
17 15 13 11 12 14 14 14 14 14 14 16 15 18 18 17 18 18 19 18 17 12 10 9 11 14 16 17 19 20 23 17 17 19 20 20 23 24 24 24 26 26 26
14 10 12 13 13 13 14 13 13 13 14 16 17 15 16 17 18 18 19 18 14 15 16 8 4 11 16 18 19 21 22 15 16 19 20 24 24 25 25 25 25 24 23
15 12 9 14 14 14 13 13 13 13 12 14 15 14 14 16 17 17 17 18 18 17 17 13 8 8 10 16 19 20 17 13 17 19 22 24 23 22 23 23 23 21 21
15 14 10 12 13 13 13 14 14 13 12 12 14 15 15 15 16 17 19 21 21 20 21 21 20 14 14 16 18 20 17 15 19 22 21 22 21 20 21 21 20 19 19
16 16 15 14 13 12 11 12 15 15 14 14 14 14 14 16 18 20 24 23 21 20 19 20 23 21 18 17 19 20 17 15 17 19 20 21 19 17 17 17 18 18 17
20 18 17 18 16 16 13 12 14 15 16 16 14 13 14 17 21 22 26 25 23 21 19 22 21 20 19 20 21 19 17 15 17 20 21 22 18 16 16 16 17 18 17
25 24 22 21 19 19 15 16 12 16 14 14 15 16 17 19 21 23 25 26 24 23 17 19 21 20 17 20 24 24 17 18 19 19 20 20 18 18 16 16 17 17 17
30 30 27 22 22 21 19 18 18 19 19 16 19 19 17 20 23 25 25 29 30 20 23 24 26 21 19 23 24 25 17 15 19 19 25 20 20 19 16 16 17 17 15
23 31 33 28 25 23 23 22 18 19 15 16 17 19 19 19 24 25 22 26 27 22 26 28 27 24 20 24 24 24 22 22 20 24 25 21 19 18 18 17 17 16 16
23 26 35 31 25 26 24 21 21 18 15 17 16 18 19 19 21 22 22 22 21 25 29 29 27 26 26 25 28 25 21 23 26 22 26 23 18 18 20 19 17 17 16
26 24 37 35 28 26 25 20 21 22 17 16 18 17 16 19 21 22 25 25 22 24 26 27 27 24 31 30 28 27 23 17 22 27 24 23 20 19 18 19 19 18 16
29 28 35 34 32 28 24 22 20 20 19 17 17 17 17 18 18 20 18 23 23 22 24 25 28 24 27 30 30 31 22 19 17 21 22 20 20 21 19 18 18 18 16
30 27 37 37 33 30 24 25 23 19 19 17 15 18 15 18 17 18 20 21 21 22 23 23 24 29 22 20 22 23 20 21 19 15 23 21 19 20 20 20 19 17 16
33 26 36 35 32 30 24 22 21 20 15 18 17 18 16 18 18 19 19 19 21 22 20 23 28 28 26 26 21 23 23 21 21 18 22 23 22 20 20 21 19 18 16
34 32 38 34 32 30 25 23 20 19 19 19 20 19 18 20 22 21 20 20 21 23 23 26 29 29 23 24 17 14 19 24 22 18 19 22 25 23 22 22 23 21 21
22 25 35 33 32 29 25 23 20 19 19 19 19 19 23 19 21 22 21 24 22 21 23 29 30 24 22 23 15 12 3 7 13 17 14 18 27 22 23 25 21 23 23
19 18 28 31 29 28 26 22 19 20 18 19 19 19 22 22 24 23 23 23 23 25 30 34 34 31 24 30 26 15 4 3 6 11 16 16 13 17 19 28 24 20 24
20 22 24 30 28 28 28 23 24 21 17 19 18 18 20 21 19 20 21 26 26 31 30 33 36 33 27 23 27 22 15 17 5 3 16 21 20 17 18 22 24 20 19
27 27 29 30 30 30 31 25 25 20 18 20 19 18 18 17 15 15 19 24 28 32 31 34 33 33 32 27 23 23 22 20 26 8 5 11 21 19 19 17 16 24 25
20 30 32 30 30 30 29 25 25 20 20 20 19 18 16 14 14 13 17 22 26 32 35 35 36 37 34 30 27 21 21 8 17 14 3 14 19 23 28 24 26 19 25

GFSSE_925_spd_093.txt.gz
Wind_Speed
23 27 24 23 21 20 20 20 19 18 16 15 15 14 14 13 12 13 15 17 18 19 20 21 21 18 15 15 13 13 13 14 16 19 23 25 27 27 26 25 27 27 27
28 28 24 22 20 19 19 20 19 18 16 15 15 14 14 14 14 14 15 16 17 17 18 20 20 18 15 14 14 13 13 15 17 21 24 27 27 25 23 25 27 26 26
26 27 23 20 19 19 19 19 18 18 16 14 14 14 13 13 14 15 15 16 16 16 16 19 17 15 15 15 16 16 15 17 20 23 26 27 25 24 23 27 27 26 26
24 24 23 20 19 19 18 19 18 17 16 15 14 14 13 13 13 14 14 15 16 15 15 17 14 14 16 16 16 18 20 21 21 22 25 24 24 24 25 26 26 26 27
22 21 21 19 18 17 17 17 17 17 16 14 14 14 14 13 14 14 14 15 16 16 14 14 13 13 15 16 18 19 23 24 19 19 21 24 25 24 26 26 26 27 27
21 18 18 18 17 17 17 16 16 16 16 15 14 14 14 14 15 15 15 15 15 12 11 12 13 13 15 16 17 21 23 20 19 18 22 23 24 24 25 27 27 28 28
21 16 17 16 17 17 16 16 15 15 15 16 15 14 14 15 16 16 16 14 13 11 13 15 13 12 12 13 16 20 21 16 21 21 21 22 23 24 25 26 28 27 26
23 19 16 17 18 17 17 16 15 14 15 16 16 15 15 15 16 17 17 15 16 16 17 17 19 17 13 9 13 19 18 17 21 22 22 25 25 25 26 26 27 25 23
20 17 16 18 19 18 18 17 16 15 14 15 15 14 13 15 18 18 18 17 19 19 20 20 19 23 18 14 14 20 16 19 20 22 26 23 22 24 26 26 25 24 23
21 17 15 18 19 19 19 18 18 17 14 15 14 14 14 15 17 18 19 22 22 21 21 20 18 19 18 18 18 20 13 18 20 25 27 26 24 23 23 22 22 22 22
23 21 18 18 19 18 19 19 19 18 17 15 16 16 15 17 18 21 23 24 24 22 23 19 16 14 18 22 22 21 16 19 22 25 26 25 23 22 22 21 20 20 20
26 22 20 18 19 19 18 20 20 20 19 18 16 16 17 18 21 22 23 24 24 23 22 20 19 16 18 21 24 24 19 19 22 25 26 23 22 21 19 19 18 18 18
30 28 25 20 19 21 21 20 21 21 19 19 17 17 17 20 21 23 25 26 25 24 24 23 23 21 19 22 26 24 20 18 23 21 25 24 23 21 19 18 18 19 20
28 35 32 29 26 24 21 22 20 21 20 19 19 18 20 22 23 25 29 31 29 29 28 29 26 26 21 20 24 26 21 20 27 25 26 24 21 20 18 18 19 19 19
29 35 38 33 33 31 24 24 21 23 21 19 21 22 20 24 26 26 29 33 33 32 31 30 26 26 24 21 22 27 25 22 26 28 29 24 21 21 20 20 20 20 20
25 35 40 37 35 31 32 27 25 26 24 23 23 25 26 25 25 27 25 27 34 37 31 28 31 30 28 25 25 27 28 27 26 28 29 24 22 21 21 20 20 20 19
31 27 38 43 38 34 35 28 27 27 27 25 23 23 23 24 24 25 27 24 31 37 30 30 31 29 26 24 21 27 30 29 25 29 28 28 24 22 22 22 21 20 19
29 29 41 45 43 38 37 32 33 25 22 22 24 22 22 22 22 21 22 21 24 25 26 29 27 25 25 22 24 24 29 29 31 29 29 28 27 24 23 20 21 20 20
35 30 36 41 45 41 38 34 31 26 24 21 22 22 22 20 20 19 21 22 24 24 26 26 27 27 25 21 27 28 27 28 32 31 31 29 27 25 23 22 20 22 20
40 39 31 41 46 44 37 30 26 24 26 26 22 21 20 18 19 19 21 22 26 26 26 26 27 28 25 21 18 24 23 27 37 33 30 30 28 24 23 22 22 23 20
40 33 34 35 36 39 35 33 29 30 29 26 22 19 21 20 23 22 23 23 26 27 27 26 26 26 20 22 12 13 15 30 36 36 31 28 23 24 24 26 24 24 22
34 29 35 38 39 39 34 31 29 32 27 27 25 21 23 22 24 25 26 27 29 28 25 24 25 20 16 26 9 12 4 9 20 26 26 25 26 27 25 28 27 26 25
26 24 37 40 40 37 33 32 27 26 24 24 25 24 24 22 25 25 26 27 28 28 27 25 27 26 18 26 25 7 4 4 9 12 20 25 29 29 28 28 28 28 27
20 26 37 39 39 37 37 33 34 26 19 18 28 26 25 26 24 24 27 27 28 30 27 30 31 33 23 24 30 23 12 18 7 2 12 15 23 27 28 30 29 28 27
18 31 37 40 39 40 39 38 36 27 22 20 25 25 24 26 27 25 27 26 25 26 27 30 33 32 32 28 29 32 18 23 20 6 3 10 18 23 18 28 29 28 27
20 23 38 39 37 42 40 35 33 31 26 25 27 27 26 26 27 24 23 24 26 27 30 32 36 34 34 30 30 26 23 15 17 8 3 10 17 18 24 19 22 29 26

GFSSE_925_spd_096.txt.gz
Wind_Speed
21 29 28 27 27 27 26 24 22 21 20 20 19 17 17 20 24 26 24 22 21 19 21 21 20 16 14 14 14 13 14 14 15 17 23 24 25 24 26 27 28 28 27
33 30 27 25 25 26 25 24 22 21 20 19 19 17 17 18 19 21 21 20 19 19 20 20 19 16 14 14 14 14 15 16 17 19 22 24 22 23 25 27 27 27 26
31 29 26 24 24 24 24 24 22 20 19 18 18 17 16 16 18 19 19 18 18 18 19 19 16 15 15 15 14 14 15 16 20 23 25 24 23 22 25 26 26 25 25
30 29 26 23 22 23 24 23 21 20 19 18 17 17 16 16 17 18 18 19 18 17 18 18 16 13 14 15 15 16 18 22 24 25 25 22 22 23 25 25 25 25 25
30 27 25 23 22 22 22 22 21 20 18 17 17 16 16 16 17 17 18 18 18 15 14 14 13 13 15 16 18 20 21 20 23 24 24 22 23 22 23 24 24 24 24
29 26 24 23 23 21 21 21 21 20 19 18 17 17 17 16 16 17 18 17 16 15 15 14 15 17 17 18 20 23 22 19 20 21 21 22 23 23 24 25 25 24 25
29 26 25 23 22 21 20 21 21 21 19 18 17 17 16 16 16 17 17 16 17 16 16 16 17 19 20 20 21 24 20 18 19 21 22 23 24 23 24 26 25 25 24
31 27 25 22 21 21 20 20 21 21 20 19 18 17 17 17 18 18 18 18 19 18 18 19 16 20 19 20 23 21 17 18 20 20 23 23 23 23 24 26 27 24 24
30 28 25 22 22 21 20 20 20 20 21 20 19 18 18 18 19 19 20 21 21 20 21 21 20 22 22 22 24 22 16 19 21 22 23 25 24 24 25 26 25 23 22
32 28 26 23 23 22 21 20 20 20 20 21 21 20 19 20 20 20 20 22 22 22 23 23 22 23 24 23 23 25 17 18 21 22 24 26 24 25 25 25 23 22 22
27 27 26 25 24 22 22 21 20 20 20 21 21 21 21 22 21 21 22 23 23 21 23 23 23 25 24 24 24 29 20 21 21 24 24 25 25 26 26 24 22 21 21
26 26 25 25 25 23 23 22 23 22 21 22 24 24 23 22 22 23 23 24 25 23 24 25 23 24 22 23 24 24 24 23 23 24 27 28 26 24 23 22 22 21 20
33 29 28 25 24 25 25 24 24 25 25 23 23 24 23 22 22 23 23 25 27 25 29 25 23 25 24 25 25 25 24 25 24 27 30 27 24 23 22 20 20 20 20
29 34 32 30 29 29 27 26 27 28 27 26 26 25 25 24 25 26 27 28 29 29 31 27 26 26 24 23 24 25 26 26 25 26 29 26 25 23 21 19 19 19 20
29 35 36 35 33 32 31 29 28 29 29 29 27 27 27 27 28 27 28 29 31 32 29 30 29 26 23 23 22 27 28 27 28 27 30 27 25 24 22 19 19 19 19
32 36 40 38 36 34 34 32 31 29 30 29 29 29 27 27 29 29 30 32 33 32 32 32 31 27 24 23 23 25 25 24 30 30 31 27 24 21 21 21 21 20 19
35 38 41 42 39 37 37 36 34 30 29 29 28 29 28 28 29 30 30 32 33 34 34 33 30 25 26 24 26 23 23 25 29 31 32 29 25 22 22 23 22 21 20
32 33 41 41 42 42 39 37 36 33 31 31 29 29 29 28 29 30 29 28 26 34 34 35 29 27 28 26 25 25 24 26 29 30 33 30 28 23 23 23 22 22 20
41 32 37 41 42 44 41 40 38 35 36 34 30 28 28 28 28 29 29 28 26 29 33 33 30 30 29 28 26 21 24 23 30 32 35 32 29 26 26 24 22 22 22
37 42 38 41 43 38 39 36 38 36 36 34 30 27 26 27 26 27 27 25 26 26 28 30 29 30 30 30 23 24 27 25 31 33 36 32 29 28 27 26 24 24 23
26 29 35 40 39 37 34 33 31 35 38 33 31 26 27 27 26 27 27 26 28 29 29 31 30 28 21 26 14 17 20 28 30 30 35 33 32 30 28 28 27 26 25
26 28 32 42 42 44 40 40 27 31 33 35 30 26 25 26 25 28 28 29 30 30 27 29 29 20 17 25 10 5 2 4 16 22 32 35 33 32 30 28 28 28 27
26 26 30 40 45 43 38 32 22 25 21 25 28 28 26 26 26 27 29 29 30 31 29 28 31 27 19 22 22 7 3 2 9 14 21 32 33 32 31 31 30 29 29
15 20 30 40 42 41 40 37 37 31 23 23 30 31 28 26 26 25 29 29 31 33 32 31 33 33 25 21 23 21 12 13 5 5 17 23 32 32 30 31 33 32 30
22 15 31 36 36 38 42 39 37 28 25 27 32 32 29 26 25 26 26 28 30 33 31 28 28 29 33 26 25 24 15 16 15 6 5 8 26 31 32 31 31 32 31
25 18 16 32 35 37 39 39 39 34 31 30 30 31 30 29 28 27 25 28 29 30 29 27 26 29 27 27 28 28 22 16 20 12 4 13 16 25 31 30 31 32 32

GFSSE_925_spd_102.txt.gz
Wind_Speed
24 31 29 28 29 27 26 26 27 28 30 29 27 26 25 24 24 26 25 23 22 20 18 17 18 14 14 13 14 15 14 12 15 15 18 19 20 21 22 21 21 21 22
28 34 32 31 31 28 27 25 26 26 27 28 27 25 25 24 25 26 25 23 22 20 17 17 16 14 14 14 14 14 13 13 16 18 21 20 18 20 22 23 21 22 22
28 35 33 33 33 31 29 27 25 25 26 27 27 26 25 26 27 26 25 23 22 19 16 17 16 14 14 15 14 15 16 18 20 19 21 21 20 19 21 23 22 20 21
35 37 35 33 32 29 28 27 26 25 25 26 26 26 26 27 27 25 24 23 21 19 18 17 16 15 16 16 15 15 17 18 20 22 22 21 19 20 21 22 21 21 21
37 37 35 33 32 29 27 26 25 24 23 24 25 26 27 27 26 24 23 22 21 19 19 17 16 16 17 17 16 16 17 19 21 21 22 21 20 20 21 21 20 21 21
36 35 33 32 31 29 27 26 25 24 23 22 23 25 26 26 25 24 23 21 20 19 19 18 18 17 17 17 17 17 18 20 21 21 21 20 20 19 19 21 22 22 22
37 35 34 33 31 29 27 25 24 23 23 22 22 23 23 23 24 24 22 21 19 19 20 19 17 17 18 18 18 19 20 21 21 22 21 20 22 21 20 21 21 22 22
36 36 36 34 32 31 28 26 24 23 22 22 22 21 22 22 22 23 22 21 20 20 20 19 18 18 19 19 21 21 21 21 23 23 21 19 22 20 21 21 21 22 22
32 33 34 33 31 29 29 27 26 24 23 22 22 22 22 22 22 22 22 21 20 20 20 19 19 20 20 21 22 21 22 23 23 24 22 22 21 23 22 22 21 23 22
30 31 31 30 28 27 27 27 27 25 24 22 22 22 22 22 22 22 22 22 22 21 21 20 21 22 23 23 22 20 20 20 21 21 22 22 21 23 24 24 24 24 21
22 25 27 25 26 27 26 26 25 25 24 24 23 23 22 22 23 23 23 23 23 22 20 21 21 23 23 24 23 21 20 20 20 21 22 23 23 23 23 25 25 25 22
22 25 27 25 26 26 25 25 25 25 26 26 25 24 24 24 24 24 24 23 23 22 21 21 22 23 23 24 24 21 20 19 21 20 21 23 24 24 25 26 24 22 22
14 23 29 28 27 28 29 28 27 26 28 26 25 24 24 24 24 25 25 25 25 23 23 23 23 24 24 24 25 24 21 19 22 22 21 24 24 23 24 25 22 22 21
14 22 25 28 28 30 30 29 28 26 28 29 28 27 25 25 26 27 27 28 28 26 25 24 24 23 23 24 24 23 21 20 21 22 23 24 25 25 25 26 23 21 20
24 25 26 28 30 32 32 30 27 24 26 26 28 27 28 29 29 29 29 29 29 28 27 26 25 24 24 23 22 23 23 21 20 19 21 25 25 26 27 25 23 22 20
25 30 34 32 35 34 35 33 30 28 26 26 25 30 30 31 31 31 30 30 29 30 28 27 26 25 23 22 22 24 23 21 16 20 21 24 25 26 27 24 23 21 20
28 30 35 39 39 40 41 40 37 35 29 29 31 31 33 33 33 32 31 31 30 30 30 28 26 26 24 22 23 24 23 19 18 20 19 21 26 26 24 22 20 21 20
27 29 36 39 40 44 45 45 43 40 35 32 33 32 33 34 33 32 32 31 30 29 30 29 27 28 26 26 23 23 23 21 24 23 19 19 26 26 22 22 20 19 20
25 27 30 36 41 43 45 47 45 40 37 36 35 34 33 34 33 32 32 29 29 28 29 28 26 28 28 26 26 23 21 25 19 23 26 24 23 28 27 25 21 20 20
30 27 29 34 39 42 37 35 35 37 34 37 37 36 34 35 34 33 31 28 24 26 26 28 27 27 28 26 18 19 22 22 27 28 29 28 26 28 28 23 22 22 20
24 27 27 32 36 36 32 30 29 30 32 33 37 38 37 36 35 34 33 29 28 27 26 27 25 25 23 28 16 15 19 23 23 24 26 28 30 27 29 25 24 24 23
22 22 18 25 32 36 32 32 30 32 30 34 32 36 37 38 37 37 35 31 29 27 28 27 27 18 19 27 11 9 2 5 17 25 25 29 32 30 28 28 26 28 26
22 24 22 20 23 35 36 31 25 23 19 20 25 29 39 38 38 38 36 33 32 30 30 28 29 23 19 22 23 8 2 3 3 9 25 30 32 33 37 31 29 29 28
24 23 25 23 21 29 35 32 33 29 24 27 34 33 32 42 42 38 37 35 32 29 29 30 30 30 22 18 24 25 9 8 3 2 7 18 30 34 35 33 30 31 29
25 23 24 27 26 23 34 37 38 34 31 25 27 32 33 36 40 37 36 33 30 29 28 29 30 30 28 22 22 15 12 11 8 3 3 5 16 26 35 33 32 32 30
28 26 25 26 29 20 31 36 36 37 30 25 26 28 30 33 38 37 35 32 30 29 28 29 29 30 29 24 25 22 21 11 9 5 2 7 12 19 27 28 30 31 31

GFSSE_925_spd_105.txt.gz
Wind_Speed
20 30 30 30 28 27 27 24 24 26 29 30 31 30 29 28 27 27 27 26 25 22 19 18 17 17 16 13 13 14 14 12 12 14 15 16 17 18 18 18 19 16 21
25 31 32 30 29 27 27 25 25 26 27 28 30 31 29 28 27 27 26 26 24 21 19 19 17 15 15 14 14 14 15 12 13 14 15 17 19 18 18 17 18 17 21
28 33 32 29 29 27 27 26 25 25 25 26 27 27 27 26 26 27 26 26 23 21 19 19 17 15 15 15 15 14 14 15 16 18 20 16 16 17 18 18 17 19 20
29 33 32 30 29 27 26 25 25 25 25 24 25 26 26 26 27 27 26 25 24 21 19 19 17 16 15 15 15 14 15 17 20 21 16 15 15 18 20 19 20 18 19
28 32 32 31 29 27 25 24 25 24 24 23 23 24 25 26 27 26 26 24 23 20 19 19 17 16 17 16 15 15 16 19 20 20 16 16 16 16 21 20 20 19 19
30 32 33 31 31 29 27 25 25 24 23 22 22 22 24 26 26 25 24 23 22 20 20 19 18 18 18 17 16 17 18 19 20 17 17 19 18 19 20 20 21 20 20
29 32 32 32 32 30 29 28 25 24 23 22 22 21 23 25 24 23 22 22 21 20 20 19 18 18 18 17 17 18 19 20 18 17 18 19 21 20 20 21 21 21 21
26 32 32 31 31 30 28 27 26 25 24 23 23 23 22 22 22 22 21 20 19 20 21 19 18 18 19 18 18 19 19 20 18 18 18 18 21 21 20 22 22 22 22
19 26 27 27 29 28 28 27 26 25 24 24 23 22 23 23 22 22 22 21 20 20 19 18 18 18 19 19 19 20 21 21 17 16 16 17 23 21 21 23 24 24 24
18 20 24 24 25 25 26 25 26 26 24 23 24 22 22 21 21 22 21 21 20 19 19 18 18 19 19 19 20 20 20 20 17 17 16 17 22 22 23 24 25 25 24
11 14 17 22 24 26 26 26 24 23 23 24 23 23 22 20 21 21 22 23 21 20 19 18 19 20 19 19 20 19 18 16 16 17 19 20 22 22 24 25 26 26 24
11 16 16 17 19 21 25 24 24 23 23 23 24 25 23 23 21 20 21 22 22 20 19 18 19 19 19 16 19 20 17 17 16 19 20 23 24 24 25 26 28 26 23
13 14 20 19 18 21 23 23 24 26 27 27 25 23 23 23 24 22 19 22 20 20 18 18 19 19 19 17 20 18 16 19 16 16 20 23 26 25 24 28 29 26 23
13 17 20 23 24 25 23 23 22 24 27 28 27 26 25 28 28 22 20 20 20 20 20 21 21 20 19 19 20 22 21 19 19 15 19 21 23 24 24 28 26 24 26
13 15 20 24 26 25 25 21 21 26 28 28 23 28 28 28 30 29 23 23 23 24 23 22 21 21 20 19 20 21 22 19 17 18 18 17 19 23 23 29 24 26 24
16 15 23 24 21 30 32 26 24 23 24 27 28 26 28 24 25 29 29 28 25 25 24 23 22 21 17 17 18 20 16 18 16 14 15 14 19 23 25 35 35 30 27
22 21 17 27 33 32 37 37 33 26 24 24 25 28 31 30 28 30 28 30 29 26 25 24 21 20 16 17 20 18 15 17 18 19 21 23 25 26 25 33 31 28 27
20 23 24 20 27 36 37 41 42 35 26 24 29 29 32 33 31 30 29 28 30 28 26 25 23 19 18 17 18 17 16 17 20 15 17 21 24 25 25 29 26 24 23
15 18 21 22 22 27 33 36 33 30 32 33 27 31 34 35 34 33 30 28 28 26 28 27 25 22 18 18 16 16 16 17 19 14 18 18 16 22 25 31 22 23 24
16 16 17 18 21 25 27 27 26 28 29 33 36 35 35 35 37 35 30 30 29 26 27 27 26 26 23 20 17 15 14 14 19 17 17 19 22 22 22 17 23 24 22
16 17 17 17 18 19 22 25 27 30 33 33 33 36 35 36 37 36 32 31 29 29 26 27 25 23 21 21 14 12 13 15 17 22 22 21 25 26 23 21 25 18 20
18 18 20 18 17 14 23 27 30 32 32 34 33 30 33 35 37 35 34 34 32 29 27 25 25 17 18 25 10 7 2 7 19 23 25 27 26 25 28 26 28 19 21
19 21 22 22 21 18 17 25 25 24 26 26 30 31 36 37 42 39 36 36 35 32 28 29 28 21 16 22 22 7 2 3 3 13 26 26 24 25 25 31 31 26 23
24 23 21 23 24 21 17 22 29 28 26 31 32 35 38 36 35 38 39 36 37 32 30 30 27 28 22 15 21 25 12 4 3 3 8 21 23 26 27 28 30 32 25
21 25 26 25 24 23 21 21 29 32 32 30 29 31 34 35 39 38 36 35 35 34 33 31 27 28 30 21 22 13 16 11 8 3 3 4 20 24 28 32 34 33 26
19 21 26 27 27 25 24 20 30 34 33 27 30 29 30 31 34 39 40 41 39 36 34 30 30 30 29 26 26 21 20 10 10 5 2 6 10 13 25 30 34 35 26

GFSSE_925_spd_111.txt.gz
Wind_Speed
5 19 31 25 24 23 21 18 17 17 18 18 18 18 18 17 17 18 19 20 19 19 18 18 17 15 14 14 12 9 5 4 3 5 6 8 11 13 15 18 17 16 16
7 18 29 28 25 23 21 19 18 19 19 19 19 20 19 18 18 19 20 20 20 18 15 15 15 14 13 11 11 10 9 7 7 8 9 9 11 13 13 13 16 16 18
9 17 29 27 25 24 22 19 19 19 20 21 21 21 21 19 19 20 20 20 19 15 15 14 14 13 12 10 10 11 11 10 9 9 9 10 9 13 17 8 15 18 19
10 15 24 28 26 24 21 20 19 19 21 22 22 23 23 21 20 21 20 20 18 17 15 14 13 13 12 12 12 12 13 11 11 12 10 9 13 12 15 10 13 17 17
9 15 20 28 27 25 22 20 18 19 20 21 22 23 22 21 21 22 21 21 19 17 15 13 11 12 13 12 13 13 13 12 12 14 9 9 13 12 13 11 13 16 17
8 13 20 25 26 24 23 20 20 19 20 20 21 22 22 21 21 22 21 21 19 16 13 13 13 12 12 12 13 12 12 13 14 13 11 10 9 12 15 14 14 15 17
10 13 13 22 25 24 24 22 20 19 19 19 20 21 21 21 21 23 23 22 19 17 14 14 14 13 13 12 11 11 12 13 16 17 11 8 9 13 16 17 17 19 18
11 15 10 21 25 24 24 22 20 19 18 18 20 20 21 22 23 24 23 22 19 17 15 14 14 12 13 12 12 12 12 13 14 15 12 8 12 13 17 19 19 19 20
8 13 12 16 22 24 24 23 22 20 18 18 18 19 20 21 21 22 22 22 19 17 15 15 15 14 14 13 13 12 13 13 13 11 5 11 13 14 18 19 20 20 21
8 12 14 15 17 17 21 22 21 20 20 19 18 18 19 19 20 21 21 20 19 17 16 16 16 15 15 14 14 14 14 13 16 15 12 12 14 16 18 19 21 21 22
8 12 15 16 19 17 16 17 20 19 19 19 19 19 19 17 17 17 19 18 19 19 17 17 16 16 16 15 15 15 15 13 14 15 9 7 13 14 20 20 24 25 25
11 14 14 14 17 19 18 17 17 17 18 18 17 17 17 17 17 18 18 20 19 19 18 17 17 16 17 13 14 17 14 15 18 16 14 9 12 12 20 21 24 25 27
8 16 16 15 17 19 18 18 18 19 18 18 18 19 19 19 18 17 18 18 18 20 17 18 16 16 17 16 19 14 16 17 17 12 8 12 12 15 19 19 22 26 27
6 9 15 18 18 18 18 19 18 19 20 20 21 22 20 21 21 19 20 19 21 20 20 19 19 20 20 19 17 14 16 16 14 11 10 11 14 17 19 18 24 30 30
7 5 8 15 17 18 19 19 19 20 21 21 18 22 24 22 21 21 21 21 21 22 20 21 19 18 20 19 17 15 16 15 14 12 10 10 12 14 20 19 20 26 24
6 4 7 10 15 17 19 20 21 21 21 20 20 24 25 24 21 21 22 22 21 18 22 20 20 19 19 19 18 18 17 16 15 13 11 10 10 12 19 21 16 19 20
8 7 3 7 10 16 17 18 21 22 22 22 22 23 26 27 24 25 24 23 23 20 20 22 22 19 18 16 17 16 17 15 14 15 12 8 4 9 13 14 17 16 29
7 6 6 6 8 12 17 17 20 23 23 24 23 24 30 28 29 27 25 27 23 21 20 21 23 20 19 17 17 17 16 15 15 13 12 12 11 12 11 14 20 25 22
7 8 8 8 8 10 14 21 23 23 24 25 25 26 27 31 30 29 24 27 27 27 22 21 22 21 19 19 18 16 14 14 13 14 14 14 12 16 13 15 18 20 25
7 9 9 10 10 10 13 17 23 26 27 27 27 27 27 28 30 28 25 24 26 27 28 22 23 23 20 19 17 15 14 12 13 13 15 14 13 12 12 12 14 19 25
9 11 12 12 11 11 12 14 19 23 26 27 30 28 28 28 27 30 29 27 29 29 30 29 23 22 22 17 10 11 11 11 13 17 15 15 13 12 14 14 16 18 13
10 12 14 14 14 13 13 14 17 23 22 28 28 29 31 28 29 31 32 31 32 31 30 30 29 21 20 21 11 7 4 7 14 16 15 16 16 14 13 14 17 13 12
12 13 15 16 17 16 17 17 18 21 27 26 27 29 29 32 33 33 34 31 30 31 30 33 31 28 21 21 20 10 3 5 3 14 19 19 17 17 16 19 17 18 18
12 13 15 16 18 19 19 19 19 21 24 26 27 29 30 32 33 35 34 37 32 33 30 32 31 29 23 20 21 24 19 8 6 5 10 18 20 19 19 20 19 18 22
16 16 17 18 18 19 20 20 22 23 24 27 31 30 30 30 34 35 37 35 36 35 33 31 30 31 29 23 24 16 22 16 14 7 6 6 12 14 20 20 19 20 19
17 18 19 19 20 21 21 21 22 26 27 28 29 32 28 30 29 34 35 38 38 34 34 33 34 35 33 28 24 21 20 13 11 12 8 11 10 11 16 18 18 20 20

GFSSE_925_spd_114.txt.gz
Wind_Speed
15 25 27 26 23 21 18 15 13 13 12 12 13 13 13 11 11 12 14 14 15 15 15 14 14 13 13 11 8 5 2 2 4 7 9 11 14 15 17 18 17 15 19
13 24 27 25 22 20 18 16 14 14 13 13 13 14 14 13 12 13 14 15 15 14 12 12 12 10 10 10 8 7 5 3 4 5 7 10 13 16 18 18 14 15 18
12 18 27 23 21 19 18 16 15 13 13 14 14 15 15 14 14 14 15 14 13 13 11 11 11 10 9 8 8 8 7 5 5 4 7 9 12 14 14 13 10 16 18
14 15 23 23 22 20 18 17 15 14 14 15 15 16 16 14 14 15 16 15 13 10 10 10 10 9 9 8 7 7 7 7 6 6 12 10 10 13 11 11 15 16 17
7 14 17 23 21 20 18 17 16 15 15 16 16 17 18 16 15 16 16 16 14 12 11 9 8 9 8 8 8 8 9 9 8 9 9 13 16 15 13 13 14 15 18
5 12 19 18 21 20 18 17 16 16 16 17 17 18 18 16 16 17 18 17 16 12 12 10 8 8 8 8 8 9 9 10 10 13 15 12 17 13 14 13 14 15 17
4 13 18 15 22 21 19 17 16 15 16 17 17 18 18 17 17 17 17 17 17 14 12 11 10 9 8 8 9 9 9 10 12 11 5 7 9 12 13 15 15 17 16
6 12 15 15 23 22 20 18 17 17 17 17 18 19 19 19 18 18 19 18 16 14 12 11 11 11 10 10 10 9 9 10 10 18 14 3 16 13 12 17 16 17 16
3 11 11 14 23 22 21 19 18 17 18 18 19 19 19 19 19 19 20 19 17 15 13 12 11 11 10 11 11 10 10 11 12 16 14 9 14 4 14 17 16 17 18
6 9 9 10 21 22 22 21 20 19 18 18 18 18 19 18 18 18 20 20 18 16 15 14 12 12 11 11 12 12 12 12 15 16 13 3 6 8 10 16 16 17 18
9 11 12 13 17 19 19 22 21 19 18 18 18 17 17 18 19 19 21 20 19 17 16 14 14 13 12 12 13 14 14 14 12 11 10 6 7 5 7 12 16 19 20
17 16 15 16 18 17 17 18 22 21 20 19 18 18 18 17 16 18 18 20 18 18 17 15 14 14 13 12 14 17 17 15 10 13 3 5 2 16 10 11 14 17 18
13 20 21 20 18 20 19 22 21 19 20 20 18 18 20 17 19 18 21 21 21 20 19 18 17 16 15 14 17 15 17 16 14 13 9 15 14 10 10 12 13 19 20
6 14 20 20 23 23 25 16 20 22 22 21 22 21 19 21 21 21 21 24 24 21 21 17 18 17 15 16 15 17 14 16 17 11 3 8 13 11 12 13 16 19 17
5 4 9 16 19 19 24 22 20 23 26 21 24 26 26 24 22 23 23 21 25 24 23 21 21 18 18 18 19 16 16 17 16 14 9 8 9 9 11 12 13 15 19
7 10 5 3 14 18 20 22 21 17 20 25 25 22 30 26 25 24 25 25 24 27 26 23 21 22 19 18 20 20 18 15 15 15 11 9 8 10 12 14 12 17 21
6 10 11 11 10 7 12 16 20 15 22 22 26 28 23 29 27 26 25 27 24 25 27 26 22 18 20 20 19 18 18 16 15 14 12 12 12 13 13 16 20 20 18
11 13 13 10 13 13 11 11 16 18 19 26 23 24 26 28 33 24 31 24 21 24 28 27 28 24 21 19 17 17 16 16 16 16 16 14 12 11 15 15 17 18 18
12 11 10 9 10 12 14 12 12 15 21 23 26 24 30 32 30 32 27 34 31 19 20 24 28 26 24 21 17 17 17 16 16 17 17 16 16 17 17 17 19 19 18
9 7 6 7 9 11 13 14 17 21 22 25 25 28 26 30 35 31 30 31 30 29 24 20 26 25 23 24 20 20 19 16 15 16 18 19 20 20 19 19 18 17 17
8 9 10 8 9 11 12 15 16 14 18 21 27 29 28 30 32 36 33 30 33 35 33 30 22 26 21 20 17 14 10 13 18 19 19 19 19 21 19 19 18 14 12
8 10 11 13 14 14 14 17 19 23 23 26 27 20 36 31 34 36 35 30 30 30 32 30 25 22 21 23 9 12 3 8 20 21 21 22 23 23 22 18 19 17 14
7 10 13 14 15 16 16 17 18 20 21 21 22 26 24 27 32 36 35 35 31 30 29 33 32 27 22 26 24 7 3 4 4 15 25 23 23 24 24 20 19 19 17
12 13 15 16 17 16 18 19 19 19 20 22 27 28 29 26 41 35 38 36 35 30 31 33 33 34 27 23 27 28 13 7 3 2 17 25 25 25 24 21 22 20 19
13 15 16 17 18 19 19 18 19 20 21 24 28 32 32 31 28 39 39 36 35 32 33 34 34 34 35 30 29 24 25 20 14 2 3 8 22 24 26 25 25 23 22
15 16 16 17 19 21 22 21 20 21 23 25 26 28 31 32 31 29 41 41 39 39 35 34 35 35 37 33 29 27 23 17 13 6 3 4 10 19 24 26 25 24 24

GFSSE_925_spd_117.txt.gz
Wind_Speed
14 25 25 22 22 22 20 19 18 16 15 14 14 13 12 13 13 13 13 14 15 15 15 15 15 14 12 10 7 5 6 5 7 6 6 10 14 17 17 18 17 19 20
15 24 24 23 21 20 19 18 17 16 15 15 15 14 13 12 13 13 14 14 13 12 12 12 12 11 10 9 6 4 2 3 5 5 7 10 15 16 18 14 14 18 20
13 24 24 23 21 19 18 17 16 15 15 15 15 16 16 14 13 14 14 13 12 10 9 9 8 7 6 6 6 4 3 3 5 5 6 11 15 17 18 12 12 16 19
12 23 25 22 20 19 17 16 16 16 16 16 16 17 17 15 14 14 14 13 12 10 7 7 7 5 5 5 4 4 3 5 4 5 10 8 15 16 12 10 14 14 18
14 20 24 22 20 18 17 16 16 16 16 17 17 18 18 17 16 15 15 14 13 9 8 8 7 7 7 5 5 4 4 5 3 5 6 6 11 13 12 13 13 15 16
14 18 19 24 21 19 17 16 16 16 16 17 18 18 18 17 16 15 15 14 13 11 9 7 7 8 8 7 6 5 4 4 2 1 7 4 5 7 11 13 13 15 16
11 17 12 21 21 20 18 17 17 17 17 18 18 19 20 18 17 16 16 16 15 12 11 9 8 7 6 6 5 4 3 3 3 5 5 6 7 6 8 13 13 15 15
7 17 15 14 19 20 19 18 17 17 18 18 18 19 20 19 18 17 18 17 17 14 12 11 10 9 8 7 6 4 3 3 5 6 3 8 7 10 11 12 14 15 15
5 13 16 15 17 20 21 19 19 18 19 19 18 19 19 19 18 18 18 18 18 16 14 12 10 10 9 8 7 6 4 4 5 5 3 7 13 6 12 15 16 16 17
10 13 13 12 17 22 21 19 19 19 20 19 20 19 19 19 18 18 19 19 19 17 15 13 11 11 10 9 8 7 7 6 5 4 6 7 16 14 15 17 18 17 17
14 14 16 13 13 21 22 22 20 19 19 19 20 20 20 20 20 19 20 20 20 18 16 14 12 12 11 10 10 9 9 8 5 4 8 11 11 10 9 12 16 17 19
16 19 18 16 15 21 23 23 22 21 21 21 21 22 22 21 21 21 21 21 21 20 18 16 15 14 13 12 12 11 12 9 6 7 10 11 12 13 10 13 15 18 18
13 22 24 22 20 19 23 23 24 23 21 21 21 22 22 22 21 20 21 22 22 20 20 19 18 18 16 14 13 12 9 10 9 10 12 13 9 12 12 14 16 17 19
15 24 24 22 23 21 20 22 21 25 23 23 24 22 23 23 23 22 23 22 23 24 23 22 22 20 18 16 13 14 13 9 11 11 11 9 11 11 12 15 18 18 21
14 20 21 21 22 24 24 18 24 27 28 28 25 25 25 26 26 26 27 28 27 26 25 26 24 20 19 17 13 16 12 12 12 11 12 12 10 12 14 17 19 20 19
14 11 13 9 11 12 17 28 23 22 26 27 26 28 29 27 28 28 28 29 29 28 28 26 27 24 22 18 18 17 18 15 16 16 14 13 12 14 16 19 18 17 18
22 22 21 18 17 18 6 15 21 16 22 24 23 24 31 32 29 30 29 31 29 28 28 28 27 27 23 20 21 21 20 19 17 16 15 15 14 15 17 19 18 17 20
23 22 19 20 18 15 10 6 8 21 33 23 28 33 30 33 34 30 33 33 32 31 32 33 31 29 29 24 25 23 22 20 19 17 16 16 16 17 18 19 21 21 21
23 21 19 16 22 20 15 11 13 12 16 13 22 26 34 34 32 36 36 32 32 29 29 35 34 33 28 25 23 21 21 20 19 18 19 19 20 20 17 19 20 20 22
24 23 21 19 20 19 19 18 14 11 9 14 17 23 26 30 32 37 39 38 35 31 22 33 36 35 34 30 23 21 20 20 20 20 20 21 21 22 21 20 22 22 22
24 24 24 23 21 19 24 25 26 26 24 19 20 16 18 28 36 38 38 38 39 41 42 27 32 34 32 30 25 16 20 22 22 22 21 22 23 25 24 23 23 25 23
24 21 21 20 20 21 20 20 21 23 15 24 21 18 15 20 24 36 37 39 42 38 41 42 33 26 27 31 16 12 3 5 18 21 23 25 24 26 27 25 22 23 23
26 23 21 21 19 19 22 21 21 22 23 23 27 27 24 24 23 18 37 39 41 35 31 41 38 33 25 31 29 12 3 5 3 15 28 27 28 28 28 27 25 23 21
24 23 23 19 18 19 21 23 23 16 17 23 30 35 36 35 34 30 25 30 42 39 37 32 36 35 30 22 24 31 11 10 4 1 9 27 29 29 30 29 28 26 22
25 24 22 19 19 21 23 22 23 22 21 22 23 29 36 38 38 38 33 27 30 40 38 37 43 38 37 27 26 26 23 16 9 3 3 5 25 29 28 30 29 28 26
26 25 21 21 21 24 24 22 20 22 25 26 28 28 27 31 39 38 34 35 30 36 39 39 39 36 32 30 26 25 28 23 20 5 2 3 8 19 32 31 31 30 28

GFSSE_925_spd_123.txt.gz
Wind_Speed
13 24 26 25 25 25 24 24 24 23 22 20 20 21 22 24 23 23 23 22 22 21 20 20 18 15 10 8 8 7 6 4 5 6 8 12 13 16 16 17 18 18 19
11 31 28 25 24 23 23 23 23 23 22 21 20 20 22 24 26 23 20 20 20 20 20 20 18 15 12 8 7 6 5 5 6 8 10 12 13 14 16 16 16 18 19
22 29 27 25 24 22 21 21 21 22 21 21 20 20 21 22 23 22 21 21 20 19 19 18 17 15 12 10 7 5 5 6 7 9 9 12 13 13 13 14 15 16 18
23 26 26 24 23 22 21 20 20 20 21 21 21 20 20 21 21 21 21 20 19 18 18 17 15 14 12 10 8 6 6 8 9 8 11 13 13 10 10 10 10 14 17
20 23 25 25 24 22 20 18 18 18 20 20 21 20 20 20 21 21 20 19 18 17 16 15 13 12 11 10 8 8 9 9 9 11 12 14 15 14 10 13 14 15 16
15 20 23 24 23 21 20 19 18 18 19 20 21 21 20 20 20 20 19 19 18 16 16 16 14 13 13 11 10 10 11 11 10 12 11 12 14 14 13 14 15 16 16
14 18 19 20 21 21 20 19 19 19 19 20 21 21 20 20 21 20 20 20 19 18 17 15 15 14 13 12 11 11 11 10 10 13 14 11 13 15 14 13 12 14 17
13 17 19 20 20 20 20 19 19 19 20 20 21 21 22 21 21 21 21 20 18 17 16 15 14 14 12 12 11 11 11 10 11 12 13 12 14 14 14 15 15 16 17
11 16 18 20 21 21 20 19 19 19 20 21 22 22 23 23 22 22 22 21 20 18 17 15 14 13 13 12 11 11 11 11 12 13 12 12 17 15 16 16 17 17 18
12 15 17 18 20 21 21 20 20 20 20 22 24 25 25 25 24 22 22 22 22 21 18 17 16 14 14 13 12 12 13 13 12 13 13 13 15 18 17 17 18 19 19
10 14 17 18 18 20 21 21 21 21 21 22 23 24 25 26 25 23 23 23 23 22 21 19 17 15 14 14 14 14 15 15 14 14 15 14 11 17 16 16 18 17 19
13 14 16 18 19 20 21 22 22 21 22 24 24 22 22 23 24 24 24 23 24 24 22 21 19 17 16 17 16 16 17 17 17 16 17 17 15 19 15 14 15 18 20
14 14 15 19 21 21 21 22 23 23 23 23 23 23 23 23 24 24 24 24 25 25 25 23 21 20 20 20 19 19 19 18 19 18 18 17 18 19 18 16 15 17 20
7 12 14 20 23 21 20 20 22 24 24 24 24 23 25 24 24 26 26 26 26 27 28 26 25 24 24 22 21 21 21 20 21 20 19 19 18 20 18 16 16 18 22
4 5 9 17 22 21 18 18 19 24 25 24 23 24 25 25 26 27 28 28 27 27 29 30 29 28 27 26 24 24 23 22 21 21 22 19 18 20 18 18 19 20 21
10 8 6 9 13 15 13 14 17 22 22 22 22 24 25 26 28 28 28 29 29 29 30 31 32 32 31 30 29 27 26 25 25 23 23 23 21 20 20 19 18 20 21
22 23 20 19 14 10 7 5 8 11 6 5 15 22 21 23 28 28 30 30 30 30 30 30 31 32 32 33 32 30 29 28 27 26 23 24 24 21 19 19 20 20 20
24 22 19 17 17 14 11 9 8 8 5 5 4 10 13 17 23 25 23 25 27 30 31 31 33 32 32 34 34 34 31 29 29 29 27 27 26 24 22 21 21 21 21
22 21 20 16 15 12 8 7 7 8 9 10 10 9 6 13 24 29 33 27 16 23 35 36 33 31 26 28 33 34 33 32 33 32 32 31 28 26 24 23 23 23 24
24 23 21 19 16 12 9 6 4 6 11 9 8 8 10 10 8 18 35 42 36 36 32 34 34 32 32 33 28 30 34 34 34 35 36 34 30 28 26 25 24 24 25
27 25 23 20 19 16 16 14 10 14 10 12 10 10 10 10 12 13 7 16 22 46 35 33 33 31 28 27 17 18 25 30 35 36 36 35 32 30 28 26 26 25 25
27 29 27 24 22 21 17 14 7 11 6 11 9 14 13 16 15 14 12 11 14 29 36 45 36 25 21 22 14 1 5 11 27 31 34 36 34 31 31 29 28 28 27
30 29 28 26 22 24 19 17 15 9 14 11 22 21 21 20 18 17 13 13 15 14 22 22 19 29 16 16 25 11 2 4 1 11 34 36 36 34 34 32 31 31 30
22 27 29 27 28 25 25 23 22 16 11 15 24 27 26 23 20 17 17 17 18 19 18 18 20 25 30 24 20 24 37 13 2 5 15 28 32 36 37 36 34 34 33
23 24 26 27 29 30 29 27 23 20 17 20 24 27 27 26 23 22 18 18 19 20 20 19 21 23 25 33 31 23 29 23 26 9 10 8 18 29 34 36 36 37 35
20 25 25 29 28 32 30 27 23 22 24 22 23 22 23 24 28 25 23 24 23 22 21 21 20 23 20 29 30 32 25 21 20 13 10 12 13 15 30 31 35 38 36

GFSSE_925_spd_126.txt.gz
Wind_Speed
15 20 22 22 22 21 21 20 20 22 22 23 25 25 25 25 25 25 24 23 22 21 20 20 18 16 12 10 9 8 8 8 7 7 9 12 14 15 16 17 18 20 21
6 23 23 23 22 20 19 19 18 19 21 22 24 26 26 26 26 23 23 23 22 21 20 21 18 15 13 10 9 7 7 8 9 8 11 12 14 15 17 17 17 18 21
8 27 26 24 23 21 20 19 19 18 20 21 22 25 25 25 25 23 22 22 22 21 20 19 16 14 12 10 9 7 7 8 9 9 11 13 14 16 17 18 19 21 20
13 26 26 25 24 22 21 20 19 18 19 21 22 23 25 25 24 22 21 22 21 19 17 16 14 13 12 10 8 7 7 9 10 10 11 14 15 15 16 16 16 17 19
17 22 23 22 21 20 20 19 18 18 19 20 22 23 24 24 24 23 22 21 20 19 17 16 15 13 11 9 8 7 8 10 10 10 13 15 16 14 14 15 16 16 17
14 18 21 22 21 21 20 19 18 17 18 19 20 22 23 23 24 23 22 21 20 19 18 17 15 13 11 10 8 8 9 10 9 11 13 14 15 14 11 13 13 16 18
9 15 19 21 21 21 20 19 18 18 18 19 20 21 22 22 23 23 22 22 21 20 19 17 15 14 12 11 10 11 11 11 9 12 12 12 13 14 11 14 14 15 16
7 12 16 18 19 19 19 19 19 19 19 21 22 22 22 23 23 23 22 22 22 20 19 18 17 15 14 12 12 12 11 12 11 12 14 10 12 13 13 13 14 16 17
8 12 14 17 19 18 18 19 19 19 19 20 21 22 23 23 23 22 22 22 22 21 20 19 18 17 15 14 13 13 12 12 12 12 14 13 11 13 13 13 14 16 17
8 12 14 17 18 18 19 20 19 19 19 20 21 22 22 22 23 23 22 22 21 21 20 18 17 16 15 14 13 13 12 12 13 13 14 12 12 16 14 15 15 16 17
7 10 13 16 17 18 18 19 19 19 19 19 21 23 23 23 24 23 24 24 22 21 19 18 18 17 15 15 15 14 14 15 14 15 15 14 15 16 22 16 16 17 19
12 12 14 16 18 18 18 19 19 19 20 20 22 22 23 23 23 23 23 22 22 22 22 20 18 17 16 16 16 16 17 17 17 17 17 16 16 12 17 16 17 19 19
14 14 15 16 18 19 20 20 20 20 20 20 20 20 20 20 23 24 23 24 24 23 23 22 20 19 19 18 18 19 19 19 20 19 19 18 18 17 19 17 17 17 19
13 15 16 17 19 21 21 20 19 19 20 20 20 20 19 18 18 20 24 26 26 26 25 25 23 22 21 21 20 21 22 22 23 23 21 20 20 20 20 20 19 17 18
15 14 15 17 18 20 20 17 15 16 18 18 18 18 19 20 19 19 21 22 26 26 25 25 24 24 24 23 23 24 25 25 24 25 25 23 21 22 21 20 19 17 17
8 7 6 7 5 11 14 11 10 12 14 15 16 15 16 14 14 16 20 23 24 25 25 26 28 28 26 25 28 28 28 28 27 27 26 24 22 22 22 22 20 19 18
11 12 10 6 5 7 7 7 6 6 9 15 14 16 14 11 14 16 25 25 23 20 23 23 26 27 29 28 28 29 31 31 30 29 29 27 25 24 23 23 21 19 19
20 21 19 17 15 13 11 11 11 8 6 6 7 8 9 12 16 24 28 19 22 18 16 17 22 23 26 28 29 32 35 32 33 32 30 30 27 27 26 24 21 21 22
24 23 23 21 20 15 12 9 11 11 10 9 6 4 2 8 13 10 20 39 34 22 16 10 15 19 23 22 28 29 33 34 34 32 31 31 30 28 29 27 24 23 24
27 26 25 25 24 20 14 6 6 10 9 6 4 3 1 2 6 9 8 10 18 23 22 24 20 17 20 23 28 29 32 34 32 32 31 32 33 32 31 29 27 26 26
32 31 31 30 30 28 27 24 12 18 11 8 8 7 5 6 7 8 8 9 10 13 19 28 31 32 31 26 23 18 26 30 26 26 29 33 36 35 34 33 30 28 28
31 31 32 32 30 30 27 24 14 16 8 10 14 14 12 12 10 9 9 10 9 11 13 19 21 30 23 22 14 6 7 8 17 22 27 32 32 34 35 35 33 31 30
27 28 28 29 30 30 28 26 26 16 17 11 25 24 22 18 15 11 9 10 12 11 12 13 21 22 26 17 24 11 2 4 2 4 14 23 24 27 35 37 36 35 33
24 25 27 25 27 27 27 27 25 17 16 18 24 26 24 20 18 16 13 11 12 12 13 14 15 16 18 28 31 29 26 13 2 2 12 23 24 26 29 37 39 38 37
19 23 22 25 24 25 24 26 25 21 20 22 23 26 24 22 20 20 15 15 15 15 16 17 18 18 19 22 22 27 28 27 26 7 6 8 28 39 34 27 35 40 40
16 22 22 25 23 26 26 25 22 20 23 23 25 23 21 22 21 19 20 18 18 15 16 16 19 21 22 22 22 26 25 16 16 12 10 9 19 31 34 31 31 37 42

GFSSE_925_spd_132.txt.gz
Wind_Speed
10 15 19 20 20 18 16 17 19 21 22 21 21 22 21 22 22 22 23 23 23 21 19 17 15 13 12 10 9 6 5 4 4 5 6 8 10 11 13 14 16 12 14
10 15 18 20 20 20 18 17 20 20 21 21 22 22 21 22 23 22 23 23 22 20 18 18 16 14 11 10 8 6 5 4 4 5 7 8 9 10 12 14 9 14 13
5 13 18 19 20 20 20 19 19 20 21 22 22 21 22 22 23 22 23 24 23 21 17 18 16 12 11 9 7 6 5 5 5 6 8 9 8 10 12 13 9 14 15
4 14 15 19 19 20 19 19 19 18 20 22 21 20 22 23 23 22 22 22 23 22 20 18 16 14 12 10 8 6 5 5 6 7 5 5 9 10 10 12 11 14 15
7 11 13 17 17 17 18 18 17 17 17 20 21 21 21 22 24 23 22 21 21 21 20 19 18 16 13 11 9 8 7 7 8 7 4 5 8 10 10 9 11 13 12
5 6 10 15 16 16 16 17 17 16 16 17 20 21 22 23 23 22 22 21 20 20 19 19 17 16 15 13 11 9 8 8 8 6 6 8 7 10 12 11 12 13 14
3 3 5 12 13 14 14 14 14 15 16 17 18 21 22 23 23 22 21 21 21 20 19 18 18 16 15 13 12 11 10 10 8 6 7 9 10 10 11 10 12 13 15
2 1 4 9 13 13 13 14 14 14 15 16 17 19 21 22 22 21 22 22 22 20 19 18 17 15 14 13 12 12 11 10 9 8 8 9 12 13 13 10 13 14 16
2 1 3 5 9 13 13 14 14 14 14 15 17 18 19 20 21 21 21 22 22 20 19 18 16 14 14 13 13 12 11 12 10 9 9 10 13 15 15 12 14 15 17
4 2 4 6 7 8 9 14 14 14 15 15 16 17 19 19 20 21 21 22 22 20 19 18 17 15 14 14 13 13 12 13 12 11 11 11 14 13 15 15 15 16 17
5 5 6 6 7 8 9 9 13 15 15 15 16 17 18 16 17 19 20 20 23 21 19 18 17 16 15 15 15 15 14 12 12 13 12 14 14 13 14 16 16 17 18
7 7 6 6 7 7 8 8 8 10 11 13 14 14 16 16 17 18 19 23 22 21 19 18 18 17 16 14 13 16 15 14 13 14 13 15 14 13 13 15 16 16 18
11 9 8 7 6 6 7 8 8 9 9 11 14 15 15 17 19 19 19 18 20 20 18 20 19 17 16 16 15 14 14 15 15 14 14 18 15 15 16 17 18 21 19
11 13 12 10 6 5 7 8 8 7 7 9 11 12 16 17 17 19 20 20 18 20 21 20 19 19 19 19 18 17 17 17 16 15 15 19 17 17 17 17 14 17 17
15 15 16 15 11 8 5 5 6 9 8 8 8 11 14 19 18 18 18 18 17 18 20 20 19 20 20 20 19 20 20 19 19 18 16 19 18 19 19 18 18 20 19
16 17 16 16 15 11 5 2 3 4 6 7 7 7 10 13 16 17 18 18 19 19 18 19 22 21 21 19 19 20 22 21 20 20 19 18 20 20 21 22 20 21 22
15 16 19 17 16 14 13 9 9 7 3 1 2 5 6 4 8 14 17 18 20 19 18 15 19 22 22 19 21 20 21 22 24 23 21 21 18 19 22 22 23 21 23
16 18 18 18 17 14 13 13 11 13 10 9 8 6 4 6 7 9 8 9 13 17 16 15 18 19 25 19 21 16 20 23 23 25 24 22 21 19 19 22 24 22 24
17 18 19 20 21 18 13 8 9 10 9 9 9 10 12 11 10 9 9 12 14 11 16 18 21 19 20 23 25 26 26 25 27 24 26 24 24 22 20 20 24 25 26
16 17 18 19 20 17 15 9 7 8 8 8 9 11 12 11 12 11 9 9 9 10 12 17 21 21 19 17 17 21 24 32 32 26 26 24 25 25 22 21 20 24 28
16 17 20 20 21 19 18 16 8 12 9 9 10 13 13 13 12 11 10 11 10 10 12 15 17 18 24 27 20 20 34 34 40 25 23 24 25 25 22 21 21 21 21
15 17 18 20 20 19 16 15 12 12 7 7 11 13 14 15 14 12 12 12 11 12 12 12 12 12 15 19 12 19 8 22 27 27 28 28 26 23 23 21 23 23 20
15 17 17 18 18 19 18 15 14 10 11 9 14 13 16 15 14 13 12 12 12 12 13 15 13 13 13 14 17 14 7 10 14 23 28 27 26 25 26 20 23 24 21
11 12 14 15 17 18 18 16 16 14 14 14 14 15 16 14 15 15 14 13 13 14 13 16 15 15 14 17 13 24 30 27 9 9 11 23 25 26 24 23 24 25 21
12 13 13 14 14 16 16 16 15 14 14 15 16 18 16 15 14 15 15 16 16 16 15 16 19 17 17 19 20 18 19 24 29 14 8 10 21 24 30 26 33 25 30
12 12 12 14 15 16 16 16 16 16 17 17 18 18 18 18 16 15 16 18 16 16 16 18 19 20 19 19 21 22 21 11 11 17 13 13 16 26 29 29 34 31 34

GFSSE_925_spd_138.txt.gz
Wind_Speed
15 19 16 14 12 9 7 8 10 11 12 12 10 8 8 9 10 12 13 15 16 15 14 13 10 8 7 5 5 4 3 3 4 4 7 9 11 15 16 17 14 14 15
17 17 15 12 11 8 7 6 8 10 12 13 11 10 9 10 11 12 13 13 14 14 13 11 8 7 7 6 5 4 3 2 3 4 7 9 10 13 16 15 8 13 15
15 12 13 12 10 8 6 6 8 9 10 12 11 11 10 11 12 13 14 13 13 13 12 10 9 7 6 5 5 4 2 2 2 4 10 8 9 13 13 9 17 14 14
15 10 10 11 10 7 6 6 7 8 9 11 11 11 12 12 13 13 14 14 13 13 12 12 10 8 6 5 4 4 3 2 3 6 13 7 7 10 12 12 13 13 13
16 10 10 9 10 9 7 7 7 8 9 10 11 12 13 13 14 15 15 15 14 13 11 12 11 10 7 6 5 4 4 5 5 10 9 11 10 13 13 12 12 12 11
14 9 6 7 10 9 9 8 8 8 8 10 12 13 13 14 15 16 16 16 16 15 13 12 13 12 11 9 7 6 6 8 9 5 11 10 12 15 15 13 12 11 14
12 8 8 8 9 9 9 9 9 9 9 9 11 13 14 15 16 17 17 17 18 17 17 16 14 14 13 12 10 9 9 10 11 4 10 14 16 14 12 12 13 12 13
12 5 6 2 6 8 9 10 10 10 10 10 10 12 14 16 17 18 19 19 19 19 19 19 17 16 15 14 13 12 11 11 12 11 15 17 7 5 9 10 12 13 13
9 9 5 5 3 5 8 9 11 11 11 12 12 12 13 15 17 18 20 21 21 21 19 19 19 18 17 16 15 14 12 12 13 13 8 2 7 12 9 10 12 14 14
7 7 6 5 7 6 6 8 10 11 12 12 13 13 14 15 17 19 21 22 23 23 22 21 21 20 20 19 18 16 14 13 14 15 9 8 14 17 11 12 11 14 15
14 22 18 12 7 3 6 9 6 9 12 12 13 13 14 16 16 20 22 24 25 25 25 24 23 23 22 21 20 18 16 17 14 11 13 18 18 15 13 12 15 13 16
25 22 20 14 12 10 7 10 10 7 8 5 6 7 11 15 15 17 20 23 26 25 26 26 26 26 23 23 23 22 22 19 16 19 21 15 19 15 11 13 16 15 17
18 21 19 18 14 17 15 14 4 4 0 2 3 5 9 13 14 18 21 22 24 25 26 29 29 29 30 29 25 25 25 23 20 23 17 19 18 12 10 13 17 18 19
16 17 19 18 15 15 17 14 12 10 9 5 5 8 9 12 13 15 17 21 19 22 25 32 27 33 35 31 30 27 28 25 21 19 18 19 15 12 12 15 18 19 20
15 17 17 17 17 17 15 14 13 11 9 9 7 7 9 12 15 14 14 16 19 20 26 30 29 31 32 32 31 31 26 25 23 20 12 19 15 14 13 17 20 21 23
14 15 16 16 16 14 14 15 12 13 13 11 10 12 12 12 13 15 16 16 17 16 20 25 31 31 29 22 16 32 27 20 17 22 20 16 16 15 16 18 22 23 23
13 13 16 16 18 15 13 12 14 16 14 14 15 14 14 14 16 16 16 17 19 22 22 21 19 22 30 24 23 31 24 24 21 22 25 20 18 18 22 21 20 25 25
13 14 14 16 17 16 13 10 11 13 11 13 14 15 15 17 16 15 17 17 17 18 20 18 17 16 15 17 13 18 31 23 26 31 27 29 27 23 23 26 23 25 28
12 14 16 17 18 17 17 14 13 12 13 12 15 18 18 17 19 17 17 17 18 19 19 18 19 18 14 10 15 22 25 30 26 30 30 29 29 29 29 25 27 26 27
13 14 15 17 18 16 16 15 16 14 13 14 16 18 17 21 20 19 18 18 19 19 20 21 20 18 16 17 14 13 19 22 23 24 27 29 31 32 32 32 25 27 29
12 13 14 15 16 17 16 16 15 14 14 12 16 15 18 21 21 20 21 20 20 19 19 18 18 19 17 14 15 12 17 22 26 27 30 33 35 35 31 29 30 31 30
10 12 13 15 16 17 14 13 13 12 12 14 15 15 19 20 20 20 20 20 21 22 21 22 20 20 19 17 7 11 4 8 18 25 31 31 33 34 33 37 33 32 35
8 10 11 14 15 17 17 16 16 14 14 18 18 18 21 19 19 20 19 19 21 20 20 21 21 20 19 21 18 4 3 3 5 8 15 25 31 34 35 34 35 36 35
7 8 10 12 14 15 17 17 17 16 14 17 18 21 19 20 20 21 21 22 22 21 20 21 20 19 18 18 20 13 17 17 4 7 12 21 23 26 29 29 29 33 38
6 8 9 11 13 14 15 16 16 15 15 15 18 18 20 20 21 22 25 24 24 21 20 21 21 19 17 15 15 18 22 19 20 3 11 12 24 24 27 28 30 34 37
6 7 8 10 11 12 13 14 15 15 15 16 19 18 20 20 21 23 24 23 21 21 22 21 20 19 19 18 18 16 15 11 13 10 7 10 12 23 22 24 27 27 32

GFSSE_925_spd_141.txt.gz
Wind_Speed
18 20 17 16 14 12 10 9 10 11 10 10 8 6 7 7 7 8 9 11 12 12 12 13 11 10 8 5 5 4 5 6 7 9 10 13 16 18 21 17 15 18 18
21 17 15 15 14 12 10 8 8 9 10 10 8 6 6 7 7 8 9 9 9 10 10 10 8 7 6 5 5 3 3 5 6 7 10 13 15 18 18 16 13 16 17
19 15 13 13 12 11 9 8 8 8 9 10 9 8 6 7 7 8 8 9 9 9 8 7 7 7 6 6 5 3 2 3 6 6 9 11 14 16 15 10 14 15 17
16 13 12 11 11 10 9 8 8 8 8 10 9 8 7 7 8 9 9 9 9 9 9 8 7 7 7 6 5 4 3 3 4 7 9 7 12 14 12 15 14 16 16
15 12 9 9 10 9 8 7 7 7 7 8 9 9 9 9 10 10 11 11 11 10 10 10 9 9 8 7 6 5 4 3 4 8 7 9 11 15 14 15 14 15 15
15 11 7 9 8 7 6 5 5 6 7 8 9 10 11 11 12 12 13 13 13 12 10 11 12 12 11 10 8 7 6 4 5 5 7 10 14 16 16 15 15 15 15
13 13 7 8 8 7 7 6 6 6 7 8 10 11 12 12 13 14 15 15 16 16 14 13 13 15 15 14 11 10 8 7 7 7 7 12 16 14 16 16 16 17 16
13 13 11 6 3 4 5 7 8 8 7 7 7 9 11 13 14 15 16 17 18 18 18 17 17 18 17 16 15 13 11 10 10 8 6 12 13 17 14 17 17 17 17
15 9 9 10 8 2 4 7 7 7 7 7 8 9 11 12 14 15 17 18 20 20 20 20 21 21 20 19 18 17 15 13 13 12 9 11 19 19 15 17 18 18 18
23 26 15 9 7 4 6 4 6 6 7 9 10 11 12 13 14 15 16 18 20 22 22 22 22 21 21 22 21 19 18 16 16 15 13 14 20 17 15 18 21 20 20
21 21 18 16 16 17 9 10 6 4 7 8 11 13 12 13 15 16 16 18 21 23 24 24 25 24 24 24 24 22 20 20 18 19 17 18 20 23 20 20 21 19 20
23 22 19 16 15 14 15 20 6 6 4 3 8 12 8 7 10 13 15 16 19 22 26 27 28 28 26 27 27 25 24 23 22 21 20 16 23 26 24 23 23 20 20
20 20 21 18 15 16 15 15 16 14 6 2 6 5 3 3 5 10 12 15 18 19 24 26 30 30 30 30 30 28 28 27 27 24 23 19 23 26 23 23 23 21 20
22 22 21 21 17 19 19 16 14 12 10 6 9 9 7 7 11 12 13 12 12 14 18 24 29 31 32 34 33 27 22 28 30 27 26 22 26 30 25 24 23 21 21
18 19 21 21 17 19 20 19 17 17 12 11 14 16 15 13 12 14 15 16 17 16 16 18 21 25 29 25 12 17 27 26 29 27 27 21 30 28 22 21 22 21 22
16 16 15 17 18 16 18 19 19 19 17 16 15 16 15 15 15 16 16 17 16 17 16 20 19 19 16 13 14 12 17 22 22 25 26 19 28 26 23 19 19 21 24
16 15 18 18 18 17 16 16 19 18 19 18 18 18 16 17 17 17 18 17 19 17 16 16 13 14 12 11 13 12 23 34 33 34 30 18 24 26 24 22 21 22 26
18 17 16 15 19 20 20 18 17 19 16 18 19 19 20 20 19 17 18 19 19 16 15 17 19 16 15 12 13 6 20 19 29 37 32 28 24 27 28 27 24 24 26
17 14 16 15 18 18 18 19 18 18 17 22 20 22 23 23 21 19 19 20 18 17 18 21 16 18 16 14 10 11 13 17 26 35 36 29 31 30 31 32 30 30 29
15 13 14 15 15 16 16 13 16 18 18 21 19 22 23 22 22 22 21 20 21 20 20 20 19 15 15 17 16 15 16 19 21 27 31 32 30 30 31 32 33 33 32
14 13 14 15 15 14 18 16 17 18 18 20 20 21 24 21 23 23 21 21 23 20 19 19 22 20 16 19 9 12 14 17 21 25 27 28 30 32 33 36 36 36 38
13 13 14 14 16 16 15 13 12 14 16 17 17 21 21 23 21 19 21 21 21 22 21 21 23 20 12 18 9 10 3 5 7 17 22 25 28 27 28 30 32 34 35
13 11 13 14 15 16 15 15 13 12 16 21 21 20 21 20 21 23 23 23 23 21 21 20 20 21 16 15 16 5 3 3 6 8 8 13 19 23 23 25 28 31 36
13 11 13 13 14 15 15 17 18 19 16 17 18 16 18 19 22 24 24 24 23 20 20 18 17 15 17 18 17 10 13 10 3 5 5 11 21 25 25 26 29 29 28
15 12 14 11 13 13 15 17 17 17 16 15 17 18 19 20 22 26 26 24 22 19 18 17 16 15 13 15 15 15 18 20 15 6 9 8 16 18 24 22 22 27 30
17 13 13 12 13 13 14 15 16 17 16 18 19 19 20 20 21 26 25 22 21 21 20 19 17 15 14 14 15 16 14 8 11 8 4 12 14 19 18 26 30 30 21

GFSSE_925_spd_147.txt.gz
Wind_Speed
11 13 12 11 11 11 11 12 12 11 12 12 12 13 16 17 17 15 14 13 12 12 11 10 9 8 6 4 3 3 4 4 5 6 7 9 12 13 15 14 16 15 16
17 14 11 9 9 10 9 10 10 9 10 10 10 11 12 14 14 13 12 11 11 10 10 9 8 7 5 4 3 3 3 3 4 6 8 9 10 13 16 15 16 16 15
21 14 11 9 8 8 8 8 9 8 8 8 8 8 9 10 11 12 11 10 9 8 9 7 6 6 5 4 3 2 2 3 5 6 8 10 12 12 15 14 15 16 16
17 14 12 9 7 7 7 7 7 6 7 6 6 5 6 7 8 10 10 10 9 8 7 6 6 6 6 6 4 3 2 2 4 6 7 9 12 10 9 11 14 15 16
14 11 10 8 7 7 6 6 6 5 5 5 4 4 4 4 5 6 7 8 9 9 8 7 7 7 7 7 6 5 4 4 5 7 6 8 9 10 9 10 14 14 16
11 8 7 7 5 5 5 6 5 4 3 4 3 4 4 4 5 6 7 7 8 8 9 9 9 9 8 9 8 7 6 5 4 7 8 8 10 10 9 12 15 16 16
12 10 8 6 5 3 2 2 3 3 2 2 3 4 5 6 7 8 9 10 10 11 11 10 10 11 11 11 10 10 9 7 7 7 9 11 10 14 14 15 17 17 18
18 13 10 7 4 2 1 1 1 1 2 3 3 5 6 7 9 10 11 12 13 13 14 13 14 14 14 14 13 13 11 10 10 9 9 12 14 16 15 17 17 17 17
21 17 14 10 7 3 1 2 2 1 3 3 3 4 6 7 9 10 11 12 14 16 16 17 17 19 18 18 16 15 15 13 13 13 12 12 11 11 18 18 18 18 19
20 16 13 12 10 10 6 2 1 2 2 2 3 4 5 6 8 9 11 12 13 16 18 18 20 22 22 21 20 18 17 15 15 16 15 15 16 14 20 21 21 22 22
23 20 16 14 13 11 9 6 3 1 3 4 5 6 5 6 7 7 7 9 11 13 15 16 19 22 24 23 22 20 18 18 17 17 17 17 16 17 19 23 22 24 24
22 21 17 14 13 11 13 11 9 8 7 6 8 8 5 5 2 3 4 4 6 9 10 12 15 19 19 21 21 19 19 19 20 19 18 19 18 18 18 22 23 25 27
20 18 16 14 13 12 11 12 11 10 10 9 9 8 7 6 7 8 10 10 10 12 13 13 13 14 14 16 16 20 19 24 22 20 19 20 21 21 21 24 27 27 28
18 17 15 13 13 14 12 13 13 14 14 14 13 11 12 11 11 11 10 11 11 12 12 14 14 13 13 11 13 23 25 19 13 16 23 22 26 27 27 25 27 31 31
18 16 16 15 16 16 16 15 16 16 17 17 16 15 14 13 12 11 11 10 10 10 11 11 11 10 12 11 7 14 19 18 21 28 36 42 39 27 28 28 26 30 34
17 17 15 16 16 15 17 17 17 17 17 18 19 19 17 15 14 13 12 12 11 11 11 9 10 9 8 10 9 14 16 21 26 28 35 38 39 29 29 31 29 30 34
17 16 17 17 16 17 18 17 16 16 16 17 18 17 16 15 14 14 15 15 15 13 11 9 9 8 7 7 10 15 19 24 24 30 34 37 34 31 31 27 27 28 32
18 17 17 17 18 20 20 18 17 16 16 17 17 17 17 17 16 16 17 17 16 15 15 14 14 11 9 10 13 16 18 20 21 25 31 36 33 30 33 31 27 29 33
18 18 17 16 18 20 21 20 18 16 16 15 15 15 15 15 16 16 17 18 17 17 16 17 16 17 16 16 18 18 19 22 20 19 20 26 32 32 28 28 23 26 30
17 15 15 15 17 21 22 20 16 15 15 14 14 15 14 15 15 16 16 18 18 18 18 18 17 15 11 21 23 21 21 22 23 22 24 25 27 32 36 30 27 28 28
16 14 12 13 14 18 19 17 13 15 14 14 15 15 16 17 18 18 18 17 17 18 19 20 21 19 13 22 14 14 18 17 20 21 23 24 24 24 28 31 35 36 34
16 14 13 12 10 11 10 13 10 13 14 13 13 15 16 16 16 17 17 17 18 18 18 19 21 20 12 20 11 6 5 8 6 8 10 15 21 21 20 18 18 21 23
16 15 15 12 12 12 13 15 17 14 12 13 15 15 17 17 17 16 15 15 16 16 17 16 18 18 14 13 14 5 4 3 9 8 2 7 5 6 8 9 8 8 8
17 17 16 14 14 13 12 12 13 14 14 12 12 13 15 16 16 15 15 14 13 13 15 14 14 14 15 13 11 9 9 9 3 7 10 11 14 18 19 22 21 18 15
19 18 17 16 14 13 13 13 17 18 15 12 12 13 15 16 16 15 14 14 13 12 12 12 14 14 12 11 10 12 10 14 13 6 9 10 26 20 28 21 25 26 23
19 17 15 15 15 13 14 14 17 16 14 14 13 14 15 15 16 16 16 15 14 13 13 12 11 11 12 11 12 10 9 6 12 8 7 15 15 18 27 28 23 23 21

GFSSE_925_spd_150.txt.gz
Wind_Speed
10 13 11 10 9 9 10 10 10 11 12 14 16 17 19 18 17 15 15 14 14 13 11 10 8 7 5 5 4 4 5 6 5 6 5 7 9 10 10 12 12 12 13
14 13 11 10 9 7 9 9 9 10 11 13 14 15 16 15 14 13 12 12 12 11 10 10 8 6 4 4 4 4 5 5 5 5 5 5 7 10 10 10 13 13 13
17 13 11 10 10 7 7 8 9 9 9 10 11 12 12 12 12 11 11 11 10 9 9 9 7 5 3 3 3 3 3 4 4 4 6 5 7 8 12 11 13 13 13
16 12 9 7 10 8 6 6 7 6 7 7 8 8 9 10 10 10 9 8 8 8 8 7 6 5 4 4 2 2 2 3 3 4 5 6 7 6 8 9 13 13 14
14 11 9 7 7 6 7 5 6 5 5 5 5 5 6 6 7 8 8 8 7 7 6 6 6 5 5 5 4 2 1 1 3 5 4 6 8 8 8 9 12 14 14
13 10 10 8 8 6 8 4 4 3 2 2 2 3 3 4 5 5 6 7 7 8 7 7 6 6 6 6 5 4 3 3 4 6 7 7 8 10 11 11 13 13 15
14 11 10 9 8 7 7 6 5 3 3 2 1 1 2 3 4 5 6 7 8 9 9 9 9 8 8 8 7 7 6 6 6 7 9 11 10 11 12 11 15 14 15
17 14 11 9 7 7 6 4 4 2 3 3 3 3 3 4 4 5 6 8 9 10 12 11 12 11 10 10 11 11 10 9 9 9 10 11 11 12 15 14 16 16 16
19 17 14 12 10 7 6 4 3 3 4 4 3 4 4 4 5 6 7 8 9 9 11 13 14 14 14 14 14 13 12 12 13 13 12 12 11 12 11 17 18 18 19
17 15 12 10 10 8 9 6 3 2 3 3 4 5 5 5 7 7 8 8 10 10 11 13 15 15 16 17 17 16 16 14 15 15 14 14 13 14 11 18 18 20 21
18 16 13 11 10 9 9 7 5 6 5 4 4 8 6 7 6 6 6 7 7 8 9 11 12 15 17 18 18 19 19 20 18 17 15 14 15 16 18 18 22 22 23
17 15 13 11 9 8 10 9 6 4 3 7 7 6 7 7 7 7 6 6 6 9 9 10 9 10 10 14 18 21 22 22 20 18 14 16 19 21 21 18 24 26 26
15 14 13 12 11 9 10 9 7 6 8 11 10 10 8 7 7 7 7 9 9 8 9 12 14 11 10 9 9 19 23 25 22 18 15 16 28 31 26 27 25 27 28
14 13 13 12 11 12 12 12 12 9 10 12 13 11 9 8 8 9 10 10 11 9 8 8 11 13 12 10 10 13 20 26 30 30 29 28 32 33 33 28 26 27 30
15 14 13 12 13 14 14 14 15 15 15 15 14 14 12 10 8 6 7 7 8 9 9 8 9 11 11 11 11 10 14 20 24 27 30 35 37 39 37 26 27 30 32
16 15 15 15 15 15 16 16 17 16 16 17 18 18 17 15 13 11 10 10 9 9 10 10 10 10 9 10 8 12 15 18 22 24 27 33 39 40 30 30 26 25 34
17 18 17 18 17 16 17 16 16 17 16 17 17 17 17 16 16 14 14 13 13 12 11 10 10 9 10 10 10 14 16 21 26 29 34 33 34 36 36 30 29 26 31
17 17 18 20 19 17 16 16 16 16 16 17 17 16 16 15 15 15 15 14 14 14 14 13 14 13 12 13 15 16 19 21 25 26 27 28 30 35 34 30 24 28 27
16 17 19 19 19 17 16 15 16 15 16 16 15 16 17 17 17 16 16 16 17 16 15 17 16 17 17 18 21 22 21 23 24 23 26 25 22 20 25 27 33 27 27
15 15 18 19 20 19 16 15 14 14 15 14 15 16 15 16 16 16 17 18 18 17 18 18 18 17 12 21 25 25 23 22 21 22 23 22 22 21 22 22 26 26 26
13 15 16 19 20 18 15 11 10 13 14 14 15 16 17 17 18 19 19 19 19 19 19 21 21 19 16 24 15 16 18 16 13 11 11 10 10 10 7 4 6 10 18
13 12 14 15 16 13 8 11 7 10 13 14 14 15 15 16 17 18 19 19 19 19 19 20 23 19 14 20 11 6 5 7 5 9 14 14 12 10 13 15 12 10 9
14 13 13 14 14 11 11 11 13 11 10 12 14 15 16 15 16 16 17 18 18 19 21 20 21 20 17 16 13 8 4 4 13 8 11 13 19 19 22 21 20 18 17
16 15 15 15 14 11 10 9 6 8 8 10 10 12 14 14 14 15 16 16 16 16 18 19 18 18 18 15 9 13 9 7 4 7 9 11 25 25 28 24 25 25 24
18 16 17 16 15 14 13 13 13 14 13 11 8 10 13 13 15 16 16 15 15 15 14 15 17 17 16 14 12 11 7 12 7 5 9 13 23 21 20 29 27 23 22
20 19 18 18 16 13 12 12 11 14 13 11 9 11 12 12 14 15 15 14 13 13 15 15 14 15 14 13 14 14 12 6 11 6 5 15 16 15 31 24 18 22 22

GFSSE_925_spd_153.txt.gz
Wind_Speed
10 14 13 13 13 13 13 14 14 13 14 15 16 16 17 18 16 15 14 13 13 11 10 9 7 6 5 5 5 6 6 6 6 7 7 8 9 9 10 11 12 10 11
13 14 12 12 12 12 12 12 13 12 12 13 15 15 16 15 14 12 13 12 12 11 9 9 7 5 4 4 4 4 5 5 4 6 7 7 7 9 7 10 11 10 11
16 13 12 12 11 10 12 11 12 11 10 11 13 14 14 13 12 11 11 11 11 9 9 8 7 6 5 4 3 3 4 4 3 4 5 6 6 9 8 8 10 10 11
13 12 10 9 8 9 10 10 10 11 9 9 10 10 10 10 10 10 9 9 9 9 8 7 6 5 4 4 3 2 3 3 2 3 3 3 5 7 8 8 11 12 11
13 12 12 11 10 9 12 10 7 9 8 6 7 7 7 6 6 6 6 6 7 7 6 6 5 5 5 5 4 3 2 2 2 3 2 3 4 5 6 7 10 11 14
14 14 13 12 12 11 12 11 9 9 8 6 5 4 4 4 3 3 4 4 5 5 5 6 6 6 6 7 6 5 4 3 3 4 4 3 4 7 8 9 10 13 14
14 13 12 11 12 12 12 10 8 8 7 6 5 4 3 2 0 2 3 5 6 6 6 7 8 7 7 8 7 7 7 7 5 5 7 8 8 8 10 12 12 15 14
13 12 11 10 10 10 9 8 8 7 6 5 4 4 5 4 3 3 3 5 6 8 9 9 10 10 10 10 10 10 10 9 8 7 7 8 9 10 9 13 13 15 15
15 14 13 11 11 10 9 8 7 6 5 4 4 3 3 2 3 1 2 4 5 7 9 11 12 13 14 14 14 13 13 12 12 11 11 11 10 10 12 11 15 16 17
15 14 13 12 11 9 9 8 6 5 4 4 3 1 1 1 2 3 2 3 2 3 5 8 10 13 16 18 18 17 17 16 16 16 15 14 12 12 12 11 17 18 20
15 14 12 12 12 11 10 9 8 9 7 7 8 7 5 3 3 3 4 4 4 4 4 5 7 8 12 16 18 20 19 21 20 17 17 15 15 13 15 19 19 23 24
13 13 12 11 12 12 11 8 7 5 5 8 8 8 8 6 5 4 4 4 4 4 5 6 9 9 9 9 11 17 21 25 22 22 23 19 18 18 19 24 24 24 28
12 13 12 11 10 10 11 9 9 9 9 11 9 9 9 8 6 5 6 6 7 7 9 11 11 11 10 11 10 12 15 17 20 26 27 25 23 25 25 26 25 24 26
13 12 11 12 13 13 13 12 11 11 10 11 11 9 8 8 8 7 8 9 9 9 8 9 10 10 10 12 11 14 14 13 17 25 31 31 32 27 27 17 19 23 26
13 13 12 12 14 15 14 15 14 14 13 13 12 11 10 9 9 9 8 8 9 9 10 11 12 13 14 14 13 11 13 14 16 19 22 25 32 33 35 31 26 22 25
13 13 14 13 14 15 16 16 16 15 15 15 15 14 13 13 11 10 10 9 9 10 11 11 12 13 13 15 16 15 13 15 17 19 22 19 28 27 31 30 31 28 27
11 15 15 16 16 16 17 18 17 16 15 16 15 14 13 12 11 10 10 10 11 11 11 12 13 13 14 14 14 17 18 19 21 23 24 23 22 30 33 33 30 29 27
12 13 14 16 16 16 17 17 17 15 15 15 14 13 14 13 13 12 12 12 12 12 13 13 15 15 13 14 18 18 19 21 21 22 21 21 23 20 18 22 22 24 28
14 17 18 17 16 16 16 16 16 14 14 14 14 15 14 15 14 13 13 14 13 13 14 15 14 14 15 16 17 19 19 20 21 17 16 15 15 16 15 16 18 19 23
17 18 19 18 17 16 15 15 15 14 13 14 14 15 15 14 15 14 14 15 14 12 13 15 15 14 12 17 22 20 17 15 14 11 11 9 7 4 5 6 4 3 3
15 17 18 19 18 16 11 10 9 11 11 12 13 14 15 14 14 17 14 15 14 14 14 14 14 15 13 20 14 14 10 6 4 8 7 4 5 11 13 16 15 15 12
15 16 18 19 19 14 10 10 8 11 11 12 12 13 13 14 16 15 15 15 15 13 15 15 17 14 11 16 12 9 4 1 7 9 9 11 13 15 14 17 18 18 18
16 16 18 18 17 14 11 11 13 12 8 6 8 10 13 14 14 15 15 14 14 13 14 14 16 16 13 12 11 7 4 3 13 4 6 9 15 15 16 17 18 20 20
16 17 17 17 15 13 13 12 8 7 6 5 7 9 10 12 12 13 14 14 14 12 13 12 15 14 13 12 7 11 6 5 3 5 5 8 16 17 16 16 17 16 18
17 16 16 16 16 16 15 13 13 12 11 9 7 8 9 10 12 12 13 12 13 12 12 13 14 14 12 11 10 10 8 8 5 5 8 10 21 12 13 18 16 13 15
16 17 19 20 19 18 17 15 12 13 13 11 8 7 8 8 9 11 11 11 12 12 12 12 12 12 11 10 9 9 8 5 10 7 7 17 13 13 19 12 10 14 13

GFSSE_925_spd_156.txt.gz
Wind_Speed
14 14 15 14 15 15 15 13 14 14 16 15 13 13 15 15 14 13 12 11 10 8 7 6 5 4 3 4 4 5 5 5 6 6 6 7 8 9 10 11 13 9 9
17 14 14 13 14 14 14 14 14 15 15 15 13 13 14 13 11 11 9 8 8 6 5 5 5 4 3 2 3 3 4 4 5 5 7 7 6 7 8 10 10 11 11
16 14 12 13 13 13 13 14 14 14 15 15 14 14 13 11 10 10 9 8 7 6 6 5 5 4 3 2 2 2 2 3 4 5 7 4 6 7 5 8 7 8 11
15 14 12 13 13 13 12 12 12 14 15 14 13 12 11 10 9 9 9 8 7 6 5 5 5 4 4 3 2 1 1 1 2 4 2 3 3 7 7 7 8 8 9
14 13 13 12 12 11 12 10 12 12 13 13 12 11 10 9 8 8 8 8 7 6 6 5 5 4 5 5 4 3 3 2 2 2 3 3 4 6 7 6 8 9 10
14 13 15 15 14 14 13 11 12 11 11 11 10 9 8 8 8 7 7 7 7 6 6 6 6 6 6 6 6 6 5 4 4 6 4 4 5 7 8 8 9 11 12
13 13 13 14 14 13 13 11 11 10 10 9 8 8 6 5 4 4 5 6 7 8 8 8 8 8 8 9 9 9 9 8 7 7 7 7 7 9 10 10 11 12 14
12 12 12 14 14 13 12 11 10 9 8 7 8 9 8 6 6 5 4 5 7 8 9 10 11 11 11 11 12 12 12 11 10 10 10 10 11 13 12 12 13 14 17
12 11 11 12 12 12 12 11 10 9 8 7 6 5 7 8 7 6 6 5 6 7 9 11 12 14 15 16 17 16 15 14 13 13 13 13 15 14 15 17 15 17 18
11 12 11 11 11 11 11 9 8 7 8 8 8 7 5 4 4 3 4 3 2 1 3 5 8 11 15 18 20 20 20 18 17 16 16 16 18 16 17 18 17 19 20
10 10 10 10 12 11 10 10 9 10 9 11 9 9 7 5 7 6 2 3 1 1 1 2 5 9 12 13 16 21 22 19 20 19 19 19 22 20 21 21 20 17 19
12 11 10 10 12 11 9 9 7 7 5 7 7 6 5 6 6 5 3 3 1 2 4 5 8 12 11 9 10 13 15 20 21 21 21 23 24 22 22 22 20 20 20
13 11 11 10 10 9 8 7 6 7 7 8 9 7 5 4 4 3 3 2 1 3 5 5 7 6 8 9 10 12 13 14 18 21 23 25 26 24 23 18 19 19 23
13 11 11 11 10 10 9 7 8 8 8 8 9 8 6 5 5 5 5 6 7 7 7 7 8 9 10 11 11 12 13 14 14 17 20 24 26 27 25 22 18 20 20
12 10 10 11 11 11 11 10 10 10 10 9 9 9 8 6 7 6 7 7 8 9 9 9 10 11 11 11 11 12 13 13 14 17 18 16 14 21 25 26 16 20 23
13 12 12 12 12 12 12 12 11 11 11 11 10 10 10 8 7 7 7 8 8 9 10 11 12 12 12 13 14 14 14 14 14 15 16 19 20 18 21 24 23 24 24
13 14 14 15 14 14 14 12 11 10 10 11 9 10 9 9 8 7 7 7 8 9 9 9 11 11 13 13 14 14 15 15 15 16 17 18 17 17 17 22 22 21 22
15 15 15 15 15 14 13 12 11 10 9 10 8 8 10 9 9 8 8 8 9 9 10 10 11 12 12 14 16 16 17 16 16 16 15 17 15 15 11 14 16 15 15
17 17 17 17 17 16 15 13 12 11 10 10 9 8 9 10 10 8 8 9 9 8 9 11 12 12 13 13 15 17 15 15 16 15 13 13 10 7 7 7 5 11 13
16 17 18 17 17 16 14 13 11 10 10 9 9 8 8 8 9 9 10 11 11 11 12 13 14 13 12 14 18 16 13 11 9 8 7 6 9 10 8 9 6 8 11
17 18 18 18 16 14 13 12 10 9 9 9 9 9 8 9 10 10 8 8 9 10 12 13 13 13 13 18 13 10 8 1 3 4 4 6 9 10 12 12 13 12 12
19 18 18 17 16 13 10 9 9 11 8 9 9 9 9 9 10 9 9 9 10 9 12 15 16 15 11 15 13 9 3 4 7 3 4 6 9 9 11 11 12 13 13
21 20 20 19 17 13 12 11 12 11 10 8 7 8 8 9 9 10 10 9 9 9 11 12 14 15 13 13 12 9 4 3 13 1 2 4 9 14 12 12 12 11 10
22 20 20 19 18 15 15 14 14 11 11 8 8 8 8 8 9 9 9 10 11 10 11 11 12 11 12 12 9 11 6 4 4 5 7 9 13 18 13 13 14 10 10
20 20 18 17 17 16 15 13 12 9 11 10 10 9 7 6 7 8 8 8 10 10 10 10 10 11 10 10 10 10 8 6 4 6 8 13 14 13 16 11 12 11 11
20 18 17 17 15 14 13 11 10 12 12 11 10 9 6 5 5 7 8 8 9 8 9 9 9 10 11 9 8 9 9 6 9 7 8 14 11 12 10 10 13 14 15

GFSSE_925_spd_159.txt.gz
Wind_Speed
15 16 17 16 13 12 11 9 9 9 13 12 13 13 13 12 12 11 10 9 8 8 7 5 3 2 2 2 3 4 5 5 5 5 5 7 6 6 7 9 10 7 7
18 15 18 16 15 13 11 10 9 11 12 12 14 14 14 13 11 10 10 9 8 7 6 5 4 2 0 1 2 3 3 4 3 4 3 5 7 6 6 7 3 10 8
18 15 16 17 16 14 13 11 11 11 11 11 12 13 13 11 9 8 8 7 6 5 4 4 3 2 1 2 1 2 2 2 2 3 3 5 8 9 5 6 5 4 6
15 15 13 16 15 15 15 14 12 12 12 12 13 13 12 10 8 7 6 5 4 3 3 3 3 3 4 3 2 2 2 2 2 1 7 3 11 5 6 7 6 6 7
16 14 13 15 14 13 14 14 14 13 13 13 12 12 11 9 8 7 6 5 4 3 3 3 3 5 5 5 5 4 4 4 4 6 7 3 3 8 7 7 8 8 8
13 12 14 15 14 16 14 13 13 12 11 12 11 10 10 9 9 8 7 6 6 5 5 5 6 7 7 7 7 7 7 6 8 11 11 4 6 3 5 8 11 10 9
16 13 13 15 14 14 13 12 12 11 11 10 10 9 9 8 7 7 7 7 8 8 8 8 9 9 9 9 9 10 10 9 9 13 7 7 6 10 9 11 12 13 13
16 14 15 16 15 15 14 13 12 11 10 10 9 8 7 6 7 6 6 7 8 10 10 11 12 12 12 13 12 12 12 13 11 12 12 11 14 14 14 14 15 16 15
16 15 14 14 16 15 15 14 13 12 11 9 8 9 8 8 6 6 6 7 9 10 10 11 12 13 15 16 17 16 15 15 14 15 15 13 16 16 17 18 17 18 18
15 16 15 15 15 14 13 12 11 10 9 10 9 7 4 3 2 3 3 4 4 5 6 7 8 9 11 15 18 19 19 19 20 19 19 18 18 20 19 18 18 19 21
15 15 17 17 15 15 13 12 13 12 13 11 9 8 5 6 5 4 3 2 2 4 4 5 6 8 11 14 11 11 15 17 19 22 23 21 21 22 22 20 18 17 17
18 16 14 15 15 14 11 11 10 9 8 7 6 5 4 5 3 2 4 3 4 5 7 9 11 12 11 11 10 7 9 12 17 19 20 22 21 20 21 20 18 17 17
19 17 15 16 14 12 11 9 7 7 7 7 7 5 4 3 2 1 2 4 4 8 6 10 10 10 11 11 12 12 13 13 16 16 20 20 22 22 21 18 16 16 17
19 17 16 14 13 12 11 9 9 8 7 7 6 6 3 2 2 2 2 4 5 7 8 8 9 11 11 12 13 14 13 14 15 15 18 20 14 16 19 20 19 17 17
20 18 16 15 13 12 11 11 10 9 8 8 7 8 6 4 4 3 4 4 5 6 7 9 10 11 12 12 11 12 12 13 14 16 17 20 18 13 13 15 18 17 18
19 18 16 15 14 13 12 12 12 10 9 8 8 9 8 7 6 5 5 5 6 8 9 9 10 12 13 13 14 13 13 13 13 14 16 17 19 20 19 16 14 16 18
20 19 17 16 15 15 15 14 12 10 9 9 8 10 10 9 8 7 6 7 8 8 10 11 12 12 12 13 14 15 15 13 13 13 12 13 13 8 6 5 7 8 10
18 18 17 16 16 14 14 13 12 11 9 8 8 9 10 10 9 7 6 7 9 10 11 12 12 12 12 14 15 16 17 15 14 13 13 10 4 5 6 8 10 9 8
19 19 17 17 16 15 14 13 12 11 9 9 8 8 9 10 9 7 7 8 9 9 9 12 13 11 13 13 15 17 17 16 14 12 10 4 8 8 6 4 6 7 10
18 19 18 18 18 16 15 14 12 11 11 9 9 8 8 8 8 7 7 8 9 9 10 12 11 13 13 15 18 15 12 12 10 7 4 5 6 7 8 7 6 6 7
19 20 20 20 19 18 15 14 13 11 11 9 9 9 8 8 8 8 7 8 9 9 11 13 14 13 11 18 15 17 10 3 3 5 3 5 6 6 6 7 8 8 8
21 20 20 19 18 15 14 12 11 12 10 10 9 9 8 9 10 8 7 7 8 6 9 11 12 13 9 13 14 13 4 2 6 0 3 3 6 8 9 8 7 8 8
22 22 21 20 19 16 13 12 13 11 11 10 9 8 8 8 8 7 7 8 8 8 8 10 11 12 11 11 12 10 5 5 14 5 3 5 9 13 12 10 9 8 7
21 20 20 20 19 16 15 14 15 13 12 10 9 8 8 8 8 7 7 8 8 7 8 9 10 9 10 10 9 10 7 5 4 5 10 8 15 9 11 11 9 8 9
20 19 19 19 19 16 16 14 15 12 13 11 10 10 8 7 7 7 8 8 8 7 7 8 9 10 9 9 9 9 8 4 3 7 7 10 12 9 8 8 11 11 13
21 20 20 20 19 16 15 14 14 12 14 13 12 10 8 6 5 6 7 7 7 7 7 7 7 9 10 9 8 8 8 7 9 8 9 12 13 11 7 6 11 12 15